GFSGBSN_700_spd_000.txt.gz
Wind_Speed
24 24 26 26 26 25 24 24 21 17 14 13 12 13 13 15 14 13 13 13 14 15 15 15 15 18 17 11 6 12 11 14 13 11 10 6 8 8 10 9 8 4 3 5 6 9 8
22 24 24 24 23 22 21 19 14 12 10 10 10 12 13 13 14 14 15 15 16 16 15 14 15 19 10 4 8 13 15 13 7 4 3 8 4 5 6 7 8 7 6 8 7 5 3
21 23 22 21 19 18 16 12 8 7 6 8 10 13 13 13 15 16 18 18 17 15 14 13 16 18 4 0 7 9 15 7 10 6 5 10 7 8 6 6 4 9 9 7 5 4 1
19 21 19 17 16 13 11 5 3 4 6 8 11 12 16 17 18 21 21 19 16 14 12 12 13 11 4 6 9 16 7 2 2 3 3 6 13 3 1 7 7 8 8 8 8 7 6
19 18 16 14 12 9 6 1 3 6 8 10 13 16 18 21 23 23 21 18 16 14 13 12 13 6 1 4 11 14 14 6 5 7 10 12 11 4 4 8 8 8 11 8 7 7 5
17 16 14 12 9 7 4 5 7 10 11 14 17 21 24 26 26 24 20 17 15 14 13 10 11 3 4 5 11 11 10 14 6 7 7 4 5 8 8 8 4 10 9 6 6 7 3
17 14 13 12 9 8 7 7 10 13 15 18 21 24 27 28 26 23 20 18 16 17 12 6 6 3 2 8 12 9 14 10 7 4 5 3 5 4 3 4 6 7 5 3 10 2 7
17 15 14 13 11 10 10 10 10 13 16 19 22 26 28 26 23 24 21 11 13 12 8 11 6 10 12 11 6 6 10 5 4 6 3 3 2 3 2 6 5 4 3 6 3 5 4
18 16 16 15 14 13 12 12 12 14 16 19 21 26 26 23 22 25 13 11 16 16 9 8 9 5 13 8 6 6 10 3 5 4 3 5 4 2 3 3 3 3 3 3 4 4 8
19 18 18 17 16 15 14 13 13 15 16 17 19 23 23 19 19 19 16 21 16 18 7 3 3 2 3 6 3 4 10 8 4 5 5 3 1 3 2 2 3 3 2 5 7 8 10
21 20 18 18 18 17 16 14 14 16 16 16 18 21 23 19 17 13 16 22 18 8 3 6 5 7 7 3 5 3 6 8 2 4 3 4 3 3 1 3 2 4 10 6 6 9 10
22 21 19 18 19 18 17 16 16 17 17 17 18 21 23 19 21 19 19 23 10 3 2 4 4 7 6 4 3 4 5 9 10 5 6 4 1 0 2 4 4 5 7 7 6 8 5
23 21 19 18 18 18 17 18 18 18 18 19 19 21 24 22 18 19 19 17 1 1 6 4 10 8 5 6 8 5 5 5 2 4 3 6 3 4 4 4 4 7 6 8 3 4 4
24 21 19 18 17 17 17 18 19 19 19 20 21 23 25 21 19 19 18 7 6 1 5 8 10 11 7 6 5 8 7 6 5 2 6 8 6 3 6 5 5 5 5 4 3 4 3
25 21 19 17 16 16 16 17 18 20 21 20 20 21 22 22 19 20 17 8 4 2 7 10 12 8 5 4 7 8 9 4 5 6 6 2 5 3 7 4 5 5 5 2 2 4 3
24 22 19 16 15 15 15 16 18 20 21 20 19 19 20 20 20 21 9 6 3 3 6 11 8 5 6 6 7 6 3 4 4 5 6 2 4 1 5 8 9 7 4 4 5 2 3
25 22 19 15 15 15 16 16 17 20 20 20 20 14 14 20 21 21 8 6 5 8 10 12 5 6 5 7 5 5 3 4 5 4 7 6 4 1 5 5 5 3 3 3 3 0 2
25 23 20 16 15 16 17 15 17 21 21 20 18 7 9 21 21 14 7 7 7 8 14 11 7 7 7 7 6 4 6 5 3 6 2 4 5 5 3 5 1 3 2 2 1 1 2
26 23 21 17 15 16 18 16 18 21 22 23 11 8 12 23 13 16 9 8 7 8 8 5 5 8 8 7 5 8 6 4 2 4 6 5 1 1 6 2 3 1 2 3 4 5 7
28 24 22 19 16 16 18 18 19 22 24 21 10 8 21 26 8 16 9 8 12 12 12 7 6 6 9 6 4 8 4 4 4 2 3 4 2 1 2 5 8 10 10 10 12 11 12
29 26 24 21 17 17 17 20 19 22 27 21 6 9 19 26 12 11 12 9 10 12 7 7 6 6 8 6 7 6 5 1 2 1 3 3 5 3 5 8 9 11 14 13 15 16 17
31 27 24 22 19 17 17 18 21 21 22 19 8 8 17 7 17 10 14 11 12 9 8 10 7 8 8 6 4 7 6 3 1 2 2 2 2 8 9 3 7 13 16 16 16 17 14
32 29 26 23 21 19 17 17 18 20 19 15 15 12 13 16 12 13 16 10 12 15 13 9 10 13 14 13 16 16 13 11 7 3 4 3 4 8 3 12 14 3 4 2 5 7 11
34 31 28 25 23 21 19 18 17 18 19 18 16 13 13 13 14 17 10 12 14 11 10 12 13 18 20 12 9 9 7 5 5 6 4 2 3 5 6 7 3 1 11 14 13 11 9
35 32 29 27 24 22 20 19 18 17 16 14 12 14 13 13 13 12 12 14 16 14 16 18 16 15 11 11 9 5 5 3 4 3 2 1 3 4 2 4 14 7 6 4 7 13 12
35 33 31 28 25 23 21 20 18 16 14 13 13 13 11 11 15 12 14 20 20 23 20 15 16 13 13 12 10 6 4 5 5 4 5 3 4 4 5 2 4 4 6 12 18 17 15
35 33 32 29 26 24 22 20 18 16 14 12 11 13 12 12 13 14 17 20 16 14 13 14 14 14 14 14 11 9 5 7 6 7 5 6 7 9 7 7 10 10 11 14 9 10 18
35 33 32 30 27 24 22 20 19 17 15 14 12 12 12 14 11 19 17 15 14 12 15 15 15 17 16 15 11 11 9 10 11 7 6 6 5 5 5 6 8 9 9 14 16 21 33
36 35 33 31 29 26 23 21 19 19 18 16 15 13 12 12 9 14 18 18 18 18 15 16 10 12 12 10 13 10 11 11 13 8 7 10 13 10 10 10 10 22 23 29 32 29 33

GFSGBSN_700_spd_003.txt.gz
Wind_Speed
23 23 24 26 27 26 27 27 30 28 25 21 18 17 15 15 14 12 12 12 12 12 13 13 15 21 14 9 7 9 9 13 10 12 14 16 11 7 5 1 6 6 4 3 3 8 14
23 21 22 24 25 24 24 25 26 23 18 16 15 13 13 13 12 11 13 13 14 15 15 16 20 19 10 8 5 11 18 11 9 5 5 7 7 10 9 16 8 7 3 4 7 10 13
23 22 22 22 21 21 21 21 20 17 14 12 11 11 12 12 13 14 15 17 17 17 16 16 22 15 3 6 6 13 16 8 9 9 2 10 7 10 5 14 7 7 7 5 7 3 6
22 22 20 20 17 18 17 15 14 12 9 9 9 9 11 15 17 18 20 20 19 17 15 17 19 9 4 3 10 15 11 7 14 8 6 15 9 9 2 7 6 8 13 13 8 7 6
22 20 18 17 14 14 12 10 9 6 7 8 10 13 16 20 22 24 23 21 20 18 18 19 15 5 4 3 13 17 15 10 7 7 6 15 11 3 7 8 13 12 13 18 14 8 6
22 18 16 15 13 10 6 6 4 5 7 10 15 18 21 25 26 25 23 20 19 19 18 18 12 3 6 5 16 16 14 14 12 11 13 16 11 7 9 9 6 6 12 21 19 15 11
21 16 15 14 13 8 6 5 5 8 11 15 19 24 27 28 27 25 22 19 17 18 14 5 3 10 5 4 11 13 15 17 14 9 7 2 8 10 8 6 2 1 10 19 18 13 8
20 17 16 14 13 9 9 8 9 11 16 19 24 28 29 27 25 26 20 15 10 11 7 10 11 10 11 11 9 12 13 10 8 4 2 5 7 7 3 2 2 2 6 13 9 4 2
19 19 17 16 14 12 12 11 12 14 18 22 27 29 27 24 27 16 9 14 17 13 10 9 8 13 16 9 9 13 16 9 6 3 9 5 5 4 8 2 7 5 4 2 1 2 3
20 21 18 18 16 15 14 13 15 17 18 21 26 27 24 22 22 9 16 20 20 15 6 7 6 12 13 10 3 8 11 10 4 12 6 3 4 7 5 1 2 1 3 5 7 3 5
22 22 20 20 18 17 16 15 16 17 17 19 24 25 21 19 20 14 15 19 19 5 3 8 8 7 13 5 4 6 10 9 3 4 4 6 6 6 5 3 3 1 6 5 5 7 7
25 23 21 21 20 19 18 17 18 18 19 19 22 24 20 18 18 15 13 19 10 1 2 5 5 7 7 6 4 3 12 8 9 6 6 3 1 1 3 6 9 7 6 5 5 5 3
26 23 22 22 21 20 18 19 19 20 21 20 21 23 23 19 18 17 21 14 3 1 8 4 11 10 5 8 7 8 9 9 6 8 10 11 4 8 5 4 3 4 7 2 1 1 3
26 24 23 21 21 20 19 20 20 21 22 21 21 22 22 21 18 18 22 8 1 5 3 7 12 11 5 7 14 7 8 6 9 6 8 8 3 1 6 7 3 10 7 5 1 1 5
27 24 23 21 20 19 19 21 22 22 23 22 22 21 22 23 17 20 19 6 3 5 10 8 13 11 8 7 7 7 3 4 5 3 6 10 5 4 4 7 4 5 8 7 4 4 3
27 24 23 21 19 18 19 21 22 24 24 23 21 20 21 22 19 22 13 8 1 5 4 12 12 11 9 8 10 5 1 2 5 4 6 9 6 3 10 10 11 9 8 4 3 2 2
28 25 23 20 18 18 20 21 23 24 25 23 21 20 19 20 21 22 14 8 2 13 13 13 6 8 9 9 8 8 4 6 6 5 7 12 6 7 6 5 6 5 1 2 1 1 4
29 26 23 20 18 18 20 21 22 24 26 24 20 16 12 20 24 21 10 4 8 8 13 13 8 11 8 13 8 8 11 7 7 9 7 8 10 10 4 6 3 3 1 0 0 2 2
29 26 24 20 18 19 20 20 23 26 26 24 23 11 10 22 24 21 5 9 6 10 9 11 13 13 7 13 6 7 10 9 6 7 7 10 7 7 3 1 2 4 2 4 5 4 2
30 27 24 21 19 20 20 19 24 27 27 27 17 13 14 23 19 18 10 10 13 11 12 10 9 14 11 10 9 11 9 8 6 7 8 8 8 5 5 2 4 6 7 8 10 10 11
30 28 26 22 19 20 21 20 25 30 32 23 10 12 14 28 17 20 10 4 12 14 12 10 7 12 13 10 8 8 6 7 7 7 7 7 8 5 4 6 7 9 10 10 12 14 15
31 28 26 23 20 20 22 21 25 32 28 19 14 13 19 26 17 17 15 11 11 5 7 9 8 10 12 15 11 9 7 3 5 7 8 5 5 2 2 5 6 12 11 12 15 15 16
32 29 27 24 21 20 21 24 24 30 25 15 8 15 20 13 22 15 11 16 12 14 8 12 13 18 16 15 14 16 13 11 7 8 5 4 1 1 2 5 4 5 3 1 4 8 10
33 29 27 25 22 21 19 22 25 26 24 20 16 15 19 16 18 18 16 15 11 14 12 12 13 21 17 16 13 13 11 11 10 7 5 4 2 1 2 1 1 7 6 10 14 11 12
33 30 27 25 23 22 20 20 20 21 21 20 11 13 12 11 10 15 12 10 17 17 18 19 18 17 18 16 11 9 9 8 6 7 8 7 4 2 3 2 9 7 7 11 10 11 17
34 31 27 25 23 22 21 20 20 19 17 15 12 12 10 9 11 11 16 17 19 18 22 21 19 17 17 15 13 9 7 7 7 6 8 7 7 5 6 4 6 11 3 11 14 16 20
34 31 29 26 24 22 21 20 19 18 15 14 12 12 11 10 15 17 15 20 20 20 22 19 17 15 13 14 14 10 9 9 7 8 9 12 10 13 11 7 8 10 14 14 11 16 20
33 32 30 28 24 22 21 19 18 18 16 14 12 11 11 9 9 19 17 18 17 16 19 16 16 16 15 15 13 13 10 12 12 13 11 11 7 9 8 7 9 6 13 16 22 30 26
34 32 31 30 26 23 21 20 19 18 17 16 14 11 9 9 8 17 19 16 16 15 12 13 14 13 13 11 16 12 12 14 18 15 16 14 16 12 13 10 19 20 20 29 31 31 30

GFSGBSN_700_spd_006.txt.gz
Wind_Speed
28 27 26 25 24 25 25 25 26 28 28 27 23 18 17 14 13 13 12 12 13 13 13 15 17 19 13 8 8 14 21 16 8 12 12 7 4 6 9 7 6 17 7 5 11 17 13
27 25 24 23 23 24 23 23 24 25 24 21 19 14 13 13 11 11 12 13 14 15 17 19 20 18 11 12 13 13 15 7 4 6 3 2 6 5 10 16 16 11 7 6 9 18 15
25 25 24 23 23 23 20 21 22 21 20 17 14 11 11 11 10 12 13 15 17 18 19 19 23 13 8 11 8 15 9 7 8 5 7 7 2 2 12 13 16 8 4 6 11 10 11
26 24 25 23 21 20 18 17 17 17 15 12 10 7 9 11 14 16 18 19 19 19 18 22 17 9 7 9 15 16 10 10 10 5 9 9 5 8 7 15 10 1 6 6 5 7 6
26 24 25 21 20 19 15 13 13 13 11 8 7 9 12 16 19 21 22 21 20 18 19 21 14 7 6 12 20 15 12 11 9 4 13 11 5 12 8 6 9 9 11 14 8 8 4
26 25 24 21 19 14 10 10 9 9 7 7 10 13 17 20 24 25 25 23 20 19 21 21 10 5 6 8 19 21 13 10 12 5 13 12 6 8 6 5 7 11 14 21 19 16 13
27 26 24 20 17 11 9 8 7 7 7 10 14 19 23 27 28 27 25 21 18 17 18 10 9 6 3 3 12 18 16 18 18 16 13 11 2 3 6 7 9 4 7 8 20 14 13
28 25 23 20 16 11 10 9 8 9 11 15 19 26 29 29 27 23 22 21 21 16 8 9 8 11 13 10 13 16 17 20 17 13 4 4 8 8 10 10 7 6 12 20 18 12 7
28 26 23 21 17 14 13 12 11 13 16 19 24 29 30 28 28 15 20 19 18 13 10 10 6 9 8 10 10 19 16 15 8 3 2 9 9 9 6 6 9 7 16 16 12 8 7
29 27 25 22 19 18 17 15 15 17 20 24 29 30 29 30 20 19 21 20 18 11 5 10 7 15 12 11 7 17 16 9 4 4 8 7 8 9 5 5 5 7 6 4 3 6 12
31 28 25 23 22 21 20 18 19 20 22 28 31 29 29 27 19 21 21 24 19 6 3 11 7 14 11 9 8 18 13 7 7 7 6 7 7 5 4 3 1 4 2 0 1 5 6
32 29 26 25 24 24 23 21 22 23 24 29 29 26 26 27 21 18 20 21 14 3 3 7 8 10 11 8 9 9 12 12 8 6 7 6 2 4 3 8 7 4 4 3 1 1 1
32 30 28 27 26 25 24 23 24 25 25 29 29 26 25 26 21 17 18 17 5 2 13 10 15 13 12 9 12 13 14 15 9 11 10 8 5 7 7 8 8 2 2 2 3 2 4
32 31 30 29 27 26 26 25 25 27 26 26 28 27 24 21 21 17 21 11 3 7 6 12 17 13 13 12 11 15 10 9 9 8 16 5 4 2 5 7 5 7 6 4 4 2 3
34 32 30 28 28 26 26 26 26 28 27 26 26 26 25 22 20 20 19 7 6 7 15 16 13 16 13 12 10 10 7 6 8 8 12 7 4 6 9 8 5 4 9 7 4 2 2
35 32 30 28 27 26 26 27 27 29 28 27 25 25 26 23 19 23 18 6 5 6 14 7 19 14 11 14 11 8 4 4 10 8 9 9 9 10 10 11 10 10 6 2 3 2 1
35 33 30 27 25 25 26 27 27 30 29 28 24 24 24 23 21 23 18 8 6 9 12 13 15 10 9 12 14 10 6 6 8 10 9 11 7 9 7 5 6 5 3 3 2 1 4
35 32 30 26 24 24 26 27 28 31 30 29 25 22 22 22 23 25 18 6 6 12 15 13 11 9 16 16 16 14 8 7 7 8 14 10 11 9 7 6 6 3 3 1 1 2 2
35 33 29 26 24 25 26 27 29 31 32 29 24 21 19 24 26 27 10 7 10 7 16 15 12 13 14 14 10 7 7 8 8 9 13 14 9 8 4 4 4 3 3 3 3 4 6
36 33 28 26 24 25 26 27 29 31 32 30 28 20 20 24 25 26 11 10 10 12 11 16 13 12 15 13 11 8 10 9 9 11 11 10 13 7 7 5 5 7 6 4 8 10 11
36 32 29 26 24 27 27 27 30 32 33 33 25 17 20 26 28 27 13 9 13 15 13 13 15 13 15 15 13 13 11 12 10 11 12 9 9 8 8 9 9 11 10 12 12 10 12
35 32 29 26 26 27 26 27 32 33 36 28 20 18 15 12 23 25 17 13 7 17 14 12 10 15 15 14 14 14 11 12 10 13 13 11 9 9 9 9 8 9 10 10 13 17 18
36 32 30 27 26 27 26 28 34 39 34 24 23 17 18 26 22 23 20 14 13 9 9 11 12 14 12 12 10 9 8 7 6 9 10 10 9 8 5 9 8 5 10 6 8 11 13
35 33 31 28 26 27 26 28 35 40 31 15 17 18 21 29 24 21 17 20 14 17 11 12 11 14 15 13 12 10 10 9 9 9 9 9 8 7 4 6 0 7 10 8 11 16 20
35 33 32 29 27 25 27 28 36 35 24 18 16 19 23 18 26 21 20 18 16 15 13 12 13 14 16 14 13 12 13 13 14 14 13 11 10 6 4 8 10 10 15 14 10 14 17
35 33 31 29 27 26 26 27 29 31 27 20 14 16 15 19 20 21 19 18 19 17 15 17 19 19 15 17 15 11 8 9 6 6 15 14 14 11 8 4 6 9 15 15 13 17 10
35 33 31 30 28 26 26 25 26 26 24 20 17 15 14 14 17 19 20 17 17 17 17 20 21 19 17 18 18 15 12 9 7 9 9 17 17 17 16 10 9 16 16 15 11 12 13
36 33 31 29 27 26 24 24 25 23 20 19 17 15 14 13 18 21 19 19 18 17 15 17 19 18 17 16 15 14 13 15 15 15 14 14 12 14 13 10 11 12 18 19 20 23 24
35 33 30 28 26 25 24 23 22 21 20 18 17 15 14 14 14 17 16 17 17 16 15 17 16 14 11 11 15 12 13 14 19 19 20 19 23 18 16 11 15 20 25 23 23 25 27

GFSGBSN_700_spd_009.txt.gz
Wind_Speed
27 27 28 29 29 28 28 29 28 27 27 28 26 24 20 15 13 13 13 12 12 12 12 13 12 12 12 10 12 13 17 17 12 10 12 10 8 7 11 11 8 9 13 12 14 21 16
28 27 27 27 26 26 27 27 26 26 26 25 21 19 15 12 11 12 11 11 12 12 15 15 15 17 15 14 14 14 17 10 8 12 5 5 9 4 6 7 8 18 16 10 8 12 15
29 28 26 26 24 25 25 25 25 26 23 21 17 15 12 10 9 11 11 12 13 15 16 17 21 15 13 13 13 16 13 14 13 10 6 11 6 0 1 14 15 11 7 6 15 18 16
31 30 27 25 23 25 24 24 24 23 19 17 14 11 9 8 10 13 13 14 16 18 19 19 20 12 12 13 17 15 14 12 10 8 8 9 3 7 9 20 21 9 6 9 13 13 14
33 31 27 25 25 24 23 22 22 18 17 13 10 9 8 10 12 14 16 17 18 18 18 22 15 8 11 14 20 12 11 11 9 5 3 9 8 19 17 17 16 11 10 6 6 9 7
36 33 28 26 25 24 22 21 17 14 14 9 8 8 10 13 15 19 20 19 18 16 21 19 10 7 5 12 20 14 9 9 10 6 8 7 7 10 8 5 7 6 10 10 12 7 11
37 33 29 27 24 23 20 19 13 13 9 7 9 10 15 19 23 22 21 17 15 17 23 14 7 5 8 8 22 16 12 10 9 13 13 11 5 4 5 5 4 5 11 18 20 17 16
38 34 30 28 25 23 19 16 12 12 7 9 12 16 23 26 24 23 18 15 15 17 15 11 7 7 10 9 14 18 14 14 15 13 11 6 4 2 3 6 4 6 1 12 12 12 12
39 36 32 28 26 23 19 15 13 12 11 13 18 24 27 27 25 22 18 17 17 13 10 12 8 8 5 9 15 14 16 14 13 8 7 5 6 6 7 8 4 12 14 16 15 7 9
40 37 33 29 27 23 20 17 15 14 15 19 24 29 29 27 24 21 20 19 15 11 8 10 10 8 5 9 12 16 13 9 5 8 8 7 9 11 11 5 3 14 13 13 10 10 16
41 38 34 31 28 25 23 20 18 17 19 25 30 30 29 29 22 22 18 19 16 8 3 10 10 14 13 11 13 17 10 7 7 12 7 7 6 7 6 6 6 9 9 8 10 12 13
43 39 35 32 29 28 26 24 22 21 23 30 32 31 29 27 25 23 21 21 13 0 2 8 11 15 14 11 8 19 10 10 10 7 6 9 8 7 6 6 9 9 8 8 4 5 3
44 41 36 34 32 31 30 27 26 25 26 32 32 29 30 26 25 23 24 21 6 4 13 11 13 16 14 10 9 18 14 15 11 13 11 7 5 5 12 8 5 8 10 2 1 1 4
45 42 38 36 35 33 33 30 29 28 29 33 32 29 31 27 24 25 24 16 5 6 10 13 17 16 12 15 12 15 14 13 11 9 13 5 4 5 12 10 5 7 7 4 5 3 2
45 42 39 38 37 36 35 33 32 30 30 33 32 30 29 29 25 24 21 12 2 10 9 21 18 18 13 12 12 13 12 12 10 11 7 7 4 4 8 9 7 4 5 4 6 4 2
46 43 40 39 37 37 36 35 33 32 31 32 32 31 28 31 25 25 20 6 4 10 19 21 20 13 18 12 15 14 10 9 14 13 18 8 7 10 9 8 6 5 5 1 2 3 1
47 43 40 38 38 37 37 36 34 34 33 32 31 31 29 28 27 27 20 7 7 11 17 19 19 16 10 17 13 12 8 8 13 13 14 12 7 12 9 5 8 5 2 2 3 2 5
46 43 40 39 36 36 37 36 35 35 35 33 31 29 29 27 27 29 23 8 9 7 16 13 17 10 12 19 16 12 10 7 10 12 13 12 9 11 7 8 6 4 3 3 1 4 4
45 42 40 37 35 36 36 36 36 36 37 35 31 28 29 28 31 32 22 8 12 9 12 15 11 12 14 19 17 14 11 8 8 9 13 13 10 10 5 6 7 6 6 5 3 5 7
44 41 38 35 35 35 35 36 36 37 36 34 31 28 29 31 31 33 20 11 13 10 10 13 14 11 15 15 10 10 10 9 10 11 14 15 14 10 11 6 9 8 10 9 9 8 9
43 40 36 36 33 33 33 35 36 37 37 36 34 26 33 35 34 30 22 13 13 11 13 15 13 14 15 15 12 11 10 11 11 11 13 15 11 13 9 8 8 10 13 15 17 16 15
42 38 37 34 32 32 33 34 36 38 38 37 32 22 30 14 31 32 23 15 14 12 11 11 13 16 15 14 14 10 14 13 12 13 15 15 8 12 11 11 12 13 14 16 18 19 21
42 39 36 32 31 32 32 33 35 38 38 38 30 24 27 19 31 34 26 18 10 13 16 12 9 11 13 13 11 8 10 8 10 11 14 13 11 12 6 11 11 13 18 16 14 17 17
41 38 35 31 31 32 31 32 36 38 37 31 25 25 25 24 32 32 23 20 15 12 8 8 10 13 12 10 9 9 8 7 7 9 12 12 12 10 5 6 1 12 12 16 17 17 17
40 38 34 30 31 32 29 32 36 38 38 24 26 22 24 27 27 27 25 20 16 15 15 9 8 11 11 12 10 9 9 9 13 13 13 14 13 9 5 10 11 12 16 19 19 19 17
40 37 33 31 30 30 28 34 37 43 42 29 19 23 18 30 27 24 22 17 20 17 16 13 11 14 14 17 14 10 6 6 5 5 15 18 18 17 11 5 6 10 11 15 20 25 19
38 36 33 31 30 30 29 34 43 37 28 23 16 21 23 26 24 26 23 20 18 19 17 16 15 17 17 19 17 15 13 12 7 8 9 15 19 20 20 13 11 17 17 17 15 17 10
38 36 33 30 30 30 30 32 42 37 28 19 17 16 18 21 21 22 21 19 18 16 15 15 17 19 20 17 17 17 12 14 16 19 16 14 11 15 17 14 14 19 20 20 18 16 23
37 36 33 30 29 32 31 31 30 28 24 20 19 18 18 18 17 20 18 17 15 15 14 13 14 13 13 12 17 14 13 14 17 20 20 21 22 18 18 16 18 16 12 23 24 26 28

GFSGBSN_700_spd_015.txt.gz
Wind_Speed
38 36 33 32 30 28 26 26 27 27 25 24 24 24 28 28 29 24 18 14 12 12 12 10 8 7 8 9 6 4 5 8 11 11 9 8 8 12 13 16 11 7 1 13 11 18 16
42 38 36 33 31 29 27 26 27 26 23 22 24 23 27 27 24 18 14 13 11 10 10 10 9 11 13 11 11 11 13 14 12 10 9 8 9 7 10 12 13 4 6 6 17 18 15
46 42 38 34 31 30 27 27 27 25 21 21 23 23 26 23 18 14 11 12 11 10 10 11 11 13 14 11 13 14 13 8 7 10 8 8 9 18 10 7 11 8 10 5 10 22 18
49 45 39 36 31 30 28 28 25 23 20 21 22 23 23 18 13 11 9 11 10 10 11 11 13 15 13 12 16 16 10 9 10 9 9 12 17 14 10 7 13 12 10 7 10 18 16
52 48 43 37 34 31 29 28 25 22 19 21 21 21 18 13 9 8 8 10 9 10 11 14 18 16 14 11 18 12 10 10 11 6 9 11 11 10 12 16 17 11 9 9 14 16 17
54 51 46 40 36 33 30 28 24 21 19 20 20 18 13 9 8 8 9 10 10 12 14 20 16 9 8 11 19 15 9 9 9 10 12 6 6 6 16 20 12 12 10 13 13 12 9
58 53 47 42 38 34 31 28 24 21 19 20 18 15 11 9 9 10 11 11 11 11 16 14 13 6 8 11 20 15 11 9 5 9 6 11 10 8 10 15 11 8 7 11 12 11 11
59 57 51 45 40 35 32 29 25 21 19 19 16 12 11 10 12 12 13 13 11 10 16 10 9 8 8 13 22 16 15 12 13 8 13 13 15 12 8 9 8 7 5 8 13 14 12
61 59 55 47 43 37 34 30 25 22 19 18 16 13 13 13 15 15 14 11 10 13 14 6 6 7 8 10 22 15 13 11 11 6 12 11 9 11 8 5 4 3 1 3 6 16 16
62 60 58 51 45 39 35 31 26 23 20 17 17 16 17 20 19 16 13 13 10 14 8 9 8 7 6 12 24 17 17 10 15 9 11 10 10 6 4 4 3 3 2 3 6 13 5
61 62 59 53 47 41 37 33 28 25 22 19 19 20 23 24 20 17 15 14 12 13 3 9 11 6 9 12 23 17 12 10 12 15 12 8 8 5 3 2 2 5 5 6 10 7 6
61 64 62 58 49 43 39 36 30 28 24 23 23 26 29 27 21 18 16 14 12 6 4 11 16 10 11 7 17 17 15 12 14 13 10 9 7 6 4 2 2 4 6 7 7 6 3
62 66 54 58 53 46 42 37 34 31 27 27 28 31 30 27 22 19 17 15 8 4 8 11 18 14 12 11 16 17 13 15 11 10 8 7 6 5 5 5 5 7 9 2 1 2 4
65 69 61 55 56 49 45 41 38 34 31 31 33 35 32 26 24 21 18 16 6 5 13 11 17 16 12 11 15 17 14 15 11 9 11 8 3 6 9 10 5 8 11 5 5 3 2
65 74 71 57 56 51 48 44 41 37 35 35 38 37 35 28 25 22 19 18 7 6 13 15 16 18 13 11 9 16 15 14 12 10 6 8 6 8 6 11 9 7 9 12 4 1 1
56 80 67 64 58 53 51 48 45 40 38 38 39 37 34 31 26 23 20 19 11 6 10 13 15 16 14 13 8 13 14 14 12 11 10 7 5 8 8 10 11 8 7 4 5 3 3
55 76 61 69 61 55 53 51 48 43 40 41 41 38 34 33 28 25 25 25 9 7 12 15 17 15 13 15 9 12 9 7 12 12 12 11 8 7 9 9 10 10 9 5 4 3 3
47 64 56 58 58 55 54 52 49 46 44 45 44 39 36 34 30 30 27 25 9 8 17 19 17 10 12 13 14 12 11 6 6 12 14 14 8 7 12 8 10 11 9 8 4 4 5
47 61 61 54 57 56 54 52 51 49 45 46 45 36 37 35 34 30 29 26 14 10 15 18 17 14 10 12 16 15 13 11 9 9 11 14 9 6 4 10 14 14 14 12 10 8 7
51 74 55 56 58 56 54 54 51 47 45 44 43 32 38 35 35 32 29 27 15 11 11 13 15 16 15 10 14 12 17 12 10 10 14 14 15 11 14 6 9 18 18 16 13 7 9
61 42 55 58 58 56 55 54 51 47 45 45 43 33 42 40 37 34 29 27 17 12 10 13 12 12 13 11 16 15 12 13 12 11 13 15 15 16 15 12 9 12 14 16 18 18 16
71 46 50 58 56 55 55 54 52 49 47 45 38 34 35 18 35 32 31 26 22 13 11 11 11 12 12 10 11 10 7 9 11 11 13 14 11 14 15 16 14 15 16 18 20 23 26
65 54 59 57 55 54 54 54 53 51 49 46 36 30 31 38 22 34 34 33 20 16 12 11 11 13 13 11 10 9 9 10 10 11 11 13 14 11 8 14 16 15 23 24 25 24 24
59 57 57 53 52 51 52 53 52 51 47 43 35 34 26 28 32 31 32 31 22 16 14 12 10 10 13 11 8 6 7 7 8 9 10 10 12 11 6 7 3 16 18 18 18 17 20
53 55 51 49 48 48 50 50 50 47 44 42 38 34 31 22 26 25 33 31 27 19 15 14 13 11 9 9 9 6 7 7 10 11 10 10 10 8 5 8 16 14 15 20 23 22 18
53 50 47 46 44 45 46 46 47 46 44 40 36 32 23 21 25 24 29 32 31 24 17 14 11 11 12 12 10 7 5 4 4 3 8 11 13 13 9 5 5 8 10 15 22 24 22
47 45 44 42 41 41 41 43 43 43 44 40 31 28 23 20 14 23 30 34 36 28 21 18 15 13 11 12 12 11 11 9 5 4 5 8 9 13 16 12 9 14 18 20 11 16 13
43 41 39 39 37 37 37 38 40 43 43 39 31 24 21 20 16 19 26 32 31 27 22 21 20 19 15 15 13 12 9 11 11 14 13 12 7 8 8 7 8 8 9 11 15 23 22
40 38 35 33 32 32 34 36 39 41 40 36 33 22 19 16 16 24 28 23 24 24 22 20 19 13 15 13 14 10 12 13 15 15 16 15 16 12 11 11 17 23 24 22 23 22 21

GFSGBSN_700_spd_018.txt.gz
Wind_Speed
39 37 37 35 31 30 29 25 23 23 25 24 27 23 24 23 25 27 25 21 18 14 11 10 9 8 8 8 6 4 3 4 5 8 8 7 8 11 12 13 15 11 3 8 16 16 15
41 42 40 38 35 32 31 26 24 23 25 23 25 22 23 23 25 26 22 18 16 12 10 9 10 11 11 10 7 5 8 12 12 10 9 9 10 10 12 11 11 7 1 8 23 19 12
44 43 44 41 37 32 33 29 26 24 23 23 23 21 22 23 24 23 17 15 13 10 9 8 10 11 13 11 10 9 10 9 6 5 5 6 8 9 9 6 10 8 5 10 18 19 18
45 45 44 44 41 35 34 30 28 25 22 21 21 21 22 23 23 18 14 12 11 8 8 9 11 13 14 12 13 12 9 5 4 7 10 13 13 13 10 13 10 8 9 8 8 17 15
43 46 46 44 43 39 35 32 28 25 21 20 20 20 21 21 19 13 11 10 8 6 8 10 13 15 14 11 16 12 6 4 6 7 9 14 19 15 10 8 10 13 9 9 12 17 14
40 43 47 46 43 41 37 33 30 26 22 20 19 19 19 19 15 10 8 9 7 7 10 14 14 12 11 12 18 10 3 6 10 5 8 12 13 12 14 15 14 10 8 13 12 14 13
42 42 44 49 44 42 38 34 31 26 22 20 19 19 16 15 13 10 11 10 9 9 12 14 14 5 10 12 18 10 5 8 4 6 5 7 8 6 13 14 5 7 7 12 13 16 13
44 43 43 46 45 42 40 36 32 28 24 21 19 17 15 13 12 11 12 11 10 9 16 10 13 8 7 11 20 12 7 14 5 10 9 7 7 8 9 13 9 4 10 11 15 16 14
47 45 44 45 46 44 42 37 33 29 25 22 20 16 15 14 12 13 13 11 9 11 15 8 9 9 8 11 23 12 7 8 8 7 7 11 12 9 4 8 7 8 7 7 8 22 19
50 47 46 46 47 45 43 40 35 31 27 24 21 16 16 16 17 17 14 12 10 12 8 7 7 7 9 9 23 17 11 9 20 5 10 5 8 11 10 5 6 5 5 1 1 15 13
52 49 48 48 48 47 44 42 37 33 29 27 22 18 19 21 22 19 17 13 12 16 5 9 10 8 9 13 19 20 15 9 13 17 11 10 12 9 6 6 6 6 5 5 7 7 7
57 51 51 50 50 48 46 43 38 35 32 29 24 23 25 26 23 20 20 15 15 9 5 10 16 9 13 9 21 18 13 11 12 18 14 12 12 9 7 6 5 6 7 8 7 5 8
55 54 54 55 54 50 50 45 40 37 35 31 27 27 29 30 26 22 23 17 9 9 5 10 16 13 12 10 18 18 15 14 10 12 11 10 10 8 6 5 6 6 8 5 6 6 8
65 57 57 59 57 53 48 49 43 40 38 34 30 32 36 33 29 24 24 19 9 10 9 11 18 15 12 12 16 21 16 14 16 13 13 13 7 7 9 10 6 9 9 7 5 5 4
65 72 65 64 61 58 53 49 46 45 42 37 35 37 41 34 29 27 25 19 11 9 13 13 19 17 12 15 13 20 15 14 16 13 9 8 4 7 7 9 9 8 9 11 5 5 4
56 59 60 68 63 61 60 51 49 50 45 39 38 41 41 37 30 28 27 18 12 9 15 15 18 17 16 15 11 18 17 16 15 13 9 7 4 8 8 8 11 10 6 3 6 3 4
56 49 43 48 67 56 55 56 54 52 47 42 42 45 44 39 33 30 26 22 20 9 16 16 16 14 15 15 12 14 12 11 17 13 11 10 8 6 9 9 9 12 9 8 5 3 3
53 52 52 46 71 62 59 59 58 54 51 48 49 45 46 41 37 33 26 27 19 12 16 18 16 13 14 14 14 10 12 13 12 15 14 14 9 7 9 11 14 15 11 11 8 5 5
47 45 47 49 76 60 60 60 61 59 57 53 53 37 46 43 35 34 26 30 24 12 16 19 20 13 14 15 11 15 14 13 10 8 11 16 9 6 3 6 13 13 16 16 14 11 8
36 41 40 53 78 60 56 63 63 60 54 50 52 34 46 45 34 34 30 28 24 14 17 21 19 18 13 13 14 10 16 13 12 11 10 12 16 11 13 5 6 12 21 20 14 8 9
35 39 44 51 67 43 64 65 63 58 53 53 54 34 42 51 44 32 29 29 22 18 16 18 18 19 17 15 13 17 15 16 14 12 12 15 13 19 19 16 14 13 12 18 22 19 14
41 37 53 47 55 41 66 63 63 57 55 56 46 31 37 28 44 30 31 25 24 20 18 18 13 15 15 14 11 12 16 14 13 12 15 16 13 16 18 19 18 18 17 18 19 21 24
39 41 51 51 44 62 65 65 62 59 56 58 45 26 38 26 43 38 35 29 25 21 17 15 13 13 14 13 11 9 11 10 10 12 13 16 15 10 7 15 17 16 24 25 25 25 25
34 37 43 55 64 69 66 66 64 59 54 54 40 27 33 38 32 39 33 31 24 24 19 15 12 13 15 14 12 11 11 11 12 13 12 12 12 10 6 4 3 12 17 16 18 18 19
29 53 50 50 64 63 64 63 60 57 52 50 36 30 27 29 28 29 34 32 28 22 21 16 14 11 11 14 11 9 9 8 10 10 11 12 11 7 5 8 15 17 15 15 18 17 15
62 37 58 65 60 61 61 60 58 54 51 47 40 35 23 25 30 28 29 33 33 28 24 20 17 15 13 15 13 9 6 7 5 5 15 15 13 13 7 4 4 7 10 14 15 13 8
42 53 59 56 59 57 58 57 55 52 49 45 43 32 31 27 17 27 29 35 33 31 27 21 18 16 14 17 16 11 8 9 5 5 6 7 9 14 15 10 7 12 14 14 5 5 12
59 51 52 53 52 53 53 53 51 49 47 44 40 32 26 22 21 17 29 28 35 33 30 24 21 20 18 16 14 11 9 11 12 12 9 8 5 6 7 6 6 3 6 8 13 22 23
49 50 48 47 47 48 49 49 48 47 45 42 37 32 28 24 17 17 22 24 30 34 29 24 23 17 19 15 14 8 11 9 11 7 11 11 11 8 7 7 13 19 17 17 21 24 24

GFSGBSN_700_spd_021.txt.gz
Wind_Speed
38 36 35 35 33 32 31 28 27 25 24 23 23 23 23 23 22 25 28 29 25 19 14 13 11 10 8 7 3 6 5 3 5 4 9 10 9 9 9 11 13 10 5 7 9 9 11
40 38 36 36 35 34 32 30 27 26 25 24 23 22 22 23 21 24 28 26 20 15 12 11 10 10 9 6 7 4 2 7 10 10 9 10 6 8 9 11 12 8 7 6 11 12 8
37 39 38 37 37 37 34 31 29 27 25 24 24 22 21 22 20 23 26 22 16 11 9 9 10 10 10 11 7 3 7 7 7 7 5 8 8 7 6 6 10 6 4 10 12 13 10
34 34 37 38 38 38 36 33 30 28 26 25 24 23 21 21 19 22 23 17 12 8 7 8 10 9 11 9 8 6 4 2 3 5 10 13 12 10 8 9 7 5 10 14 12 14 11
35 35 34 35 39 37 37 35 32 29 27 25 24 22 21 20 17 20 18 13 8 6 7 9 10 11 7 9 9 7 4 2 4 7 10 10 9 12 6 7 8 11 17 15 12 15 11
39 37 36 34 35 38 37 36 34 30 28 25 24 22 21 19 16 17 14 9 7 7 9 11 12 9 7 7 10 7 2 3 2 4 5 5 6 7 10 12 13 17 16 12 12 14 14
43 42 39 37 35 36 37 36 34 31 29 26 24 22 20 18 14 13 12 8 5 5 12 15 9 5 8 11 15 7 4 6 1 3 3 7 9 6 10 15 5 9 7 11 10 12 13
50 45 44 41 38 36 37 36 35 33 30 28 25 22 20 17 14 11 12 9 11 11 10 11 16 9 8 11 12 10 7 7 6 6 6 9 14 11 9 12 7 3 6 11 9 12 11
57 52 48 45 43 38 37 37 36 35 32 29 27 23 19 16 14 11 12 11 10 9 10 8 13 13 7 9 14 12 10 10 9 11 9 11 1 4 7 8 10 5 7 9 9 14 12
60 57 53 49 47 43 38 38 38 37 34 31 28 24 19 16 14 13 13 13 11 11 7 11 10 10 9 10 16 13 11 7 13 5 4 4 10 3 4 4 6 9 7 8 5 15 22
64 60 57 53 50 47 42 40 40 39 36 32 29 26 21 19 15 20 19 16 14 15 6 12 12 9 10 11 18 18 13 8 12 5 10 2 8 10 9 6 9 5 7 6 7 14 11
67 64 60 57 54 50 47 42 42 41 38 34 31 27 24 21 22 22 21 17 17 11 7 11 13 12 10 13 16 16 14 11 6 11 11 8 10 6 3 6 6 5 4 6 9 15 10
67 65 62 60 57 53 50 45 45 44 40 37 34 29 24 26 30 27 24 18 12 17 8 12 17 13 13 12 18 15 19 16 14 15 16 11 9 11 7 4 5 6 8 12 11 9 9
68 66 64 61 60 57 54 48 48 47 42 40 37 33 29 33 33 30 27 23 14 18 13 9 17 14 15 12 14 20 17 20 19 16 17 17 12 13 11 10 6 9 13 12 6 7 12
60 68 67 64 63 61 58 52 51 49 46 43 40 36 35 38 35 33 30 21 22 13 15 13 16 17 15 14 11 17 20 20 17 19 18 14 8 9 9 7 7 9 12 10 7 6 10
64 62 69 71 68 66 63 55 55 53 48 46 42 36 35 42 39 35 30 27 21 13 14 14 20 19 17 16 14 18 18 16 12 16 14 5 5 4 8 7 9 10 4 6 10 5 9
61 63 53 57 72 70 67 59 58 57 50 46 43 38 40 46 40 38 32 29 22 15 12 16 20 16 16 16 16 18 16 11 16 16 15 11 11 5 6 10 12 8 13 11 7 6 4
54 59 57 52 47 68 69 62 57 57 51 52 47 38 48 49 45 37 34 29 17 15 13 14 17 14 16 16 17 15 19 13 14 14 14 14 10 13 12 11 12 10 11 12 10 8 5
47 43 58 55 50 46 69 72 58 58 59 56 51 34 43 49 44 36 28 27 22 16 14 16 18 14 13 15 15 16 14 16 11 14 13 13 11 12 11 11 11 12 13 13 11 11 10
47 49 50 58 48 51 72 75 60 57 61 57 41 36 47 57 40 32 33 32 24 19 15 16 16 15 13 14 14 11 13 14 15 15 12 13 15 16 16 9 2 10 13 15 17 13 14
41 40 50 50 50 49 75 73 60 57 61 58 43 41 47 56 49 35 33 27 28 22 15 17 17 19 16 13 13 11 12 14 16 15 14 13 11 15 18 13 12 11 12 14 20 22 20
36 37 41 46 52 49 71 77 59 48 62 62 43 42 35 31 46 31 35 30 32 23 19 20 17 19 16 14 15 11 13 14 13 16 15 15 9 15 16 14 16 15 16 17 18 20 21
34 29 39 44 52 54 69 70 58 61 68 67 42 37 38 34 48 37 36 29 32 24 21 18 18 17 15 15 15 12 15 13 10 11 13 12 15 10 8 9 9 14 21 22 21 20 20
34 35 39 43 51 59 53 54 56 71 70 61 38 37 42 37 48 43 32 27 29 25 19 20 15 15 17 15 14 12 11 11 13 15 15 15 14 10 5 4 1 9 12 13 14 16 19
38 37 41 50 52 67 54 63 76 69 68 55 32 32 31 36 36 39 29 28 24 25 17 23 20 15 13 14 14 11 10 12 14 15 15 14 14 8 5 9 11 14 13 13 10 9 8
37 40 43 45 47 78 51 70 71 69 65 50 46 35 27 39 26 35 32 29 25 27 26 21 18 15 13 15 15 9 7 7 5 5 16 15 14 10 7 4 4 3 8 9 9 8 2
34 37 38 44 66 61 58 62 67 67 67 40 42 31 22 26 26 26 35 29 25 20 24 25 21 17 14 16 18 9 9 8 5 6 6 12 14 14 12 8 7 9 13 12 6 4 10
33 30 37 59 41 59 67 66 68 67 62 44 42 35 26 21 25 31 23 26 26 25 28 26 22 21 20 17 16 10 10 11 9 8 7 7 6 7 8 6 7 9 4 2 7 16 23
43 39 46 42 57 65 60 65 64 64 55 44 37 37 30 21 24 23 26 28 27 25 23 26 21 20 20 13 14 12 11 9 13 6 11 6 10 6 7 3 10 11 17 15 22 24 24

GFSGBSN_700_spd_024.txt.gz
Wind_Speed
36 37 36 35 34 33 32 31 29 28 25 24 22 23 23 23 23 24 23 24 26 27 22 18 14 10 7 5 7 9 9 6 2 6 8 5 7 7 9 10 11 14 9 9 6 10 10
32 34 37 37 35 34 33 32 30 28 26 24 23 22 23 22 23 23 23 22 25 23 17 15 11 8 6 5 1 7 4 3 5 8 9 7 4 6 12 10 12 11 9 6 6 9 7
30 30 32 34 36 35 34 33 32 30 27 25 23 22 22 22 22 22 22 21 21 17 12 11 8 7 6 7 8 3 5 7 8 9 3 5 6 5 3 6 6 6 6 7 7 8 8
33 31 31 30 32 35 36 34 34 32 28 25 23 23 22 22 21 21 20 19 17 12 9 8 6 5 4 7 6 5 4 3 3 3 10 7 13 12 9 4 4 6 4 9 11 9 8
36 35 33 32 30 29 34 35 34 32 30 26 24 23 21 21 20 20 19 16 13 10 7 6 4 4 5 7 7 3 2 3 9 7 7 8 7 8 5 6 8 7 11 11 10 16 8
42 39 36 34 32 30 29 32 34 33 31 27 25 22 21 20 20 19 17 12 9 8 7 4 5 4 6 3 4 6 6 5 3 5 3 4 4 5 6 10 8 11 14 15 13 13 14
47 44 41 38 36 34 31 30 31 34 32 29 26 22 21 20 19 17 14 7 4 6 8 7 6 5 4 6 10 8 7 4 1 3 1 2 6 6 10 10 10 13 15 17 13 13 12
53 50 46 43 40 38 34 32 30 33 32 30 28 24 21 20 18 17 12 8 6 12 9 14 12 16 12 8 11 10 8 6 2 3 5 6 7 9 9 11 13 14 9 10 7 8 12
59 56 53 48 44 42 39 35 32 31 33 31 29 25 22 19 18 15 12 11 13 8 8 8 13 17 7 10 13 13 12 12 10 9 7 4 11 11 13 10 13 12 2 12 6 8 11
65 62 59 55 51 47 44 40 35 31 34 34 30 27 23 21 17 13 8 13 10 7 5 9 16 18 13 13 16 8 13 11 11 11 13 15 13 10 6 8 11 8 7 7 7 14 11
70 66 62 59 56 52 48 45 39 35 35 35 33 29 25 23 16 15 18 15 11 9 4 8 13 10 13 17 15 17 11 9 8 8 12 6 10 10 7 5 2 2 7 9 14 11 6
74 71 67 63 59 56 51 48 44 39 37 38 35 31 29 24 18 23 16 17 13 6 7 9 15 14 14 17 16 15 15 12 7 14 11 8 10 3 10 7 5 3 5 8 11 15 3
77 75 70 67 65 60 56 52 48 44 39 41 38 34 31 26 22 26 21 20 10 11 8 11 16 14 16 16 17 20 17 16 14 12 10 9 11 8 6 7 5 8 9 11 6 8 4
74 75 72 70 67 63 59 54 51 48 43 43 41 38 35 29 30 28 26 23 14 11 19 3 15 16 17 14 19 20 16 19 19 16 12 13 12 15 10 11 5 10 13 4 4 3 11
68 72 73 70 68 66 63 58 55 51 46 45 44 42 41 32 32 35 32 29 19 14 20 12 15 19 19 17 14 18 20 21 18 21 15 8 9 5 5 8 5 7 6 7 11 17 5
52 57 66 72 70 68 65 62 57 54 50 49 46 45 40 35 37 38 36 33 25 20 7 15 19 19 18 19 14 16 20 18 16 10 17 9 9 20 9 9 9 10 8 5 5 2 4
50 51 54 61 74 72 69 66 62 57 53 50 45 45 39 38 42 44 43 35 23 17 15 11 21 18 19 16 16 15 16 12 12 11 13 9 19 6 4 7 10 7 9 12 11 7 1
55 52 58 54 60 63 74 71 68 60 54 51 49 47 45 44 47 50 40 34 27 19 18 15 17 20 19 16 17 15 15 18 14 13 9 11 8 10 13 9 7 9 8 11 10 8 4
54 54 57 58 52 53 61 73 70 65 57 55 54 43 33 44 55 46 41 32 31 22 18 20 18 17 17 15 14 16 11 12 13 9 10 8 7 12 13 12 10 15 14 14 9 11 10
53 53 51 55 45 56 49 56 70 71 60 59 50 40 33 49 53 43 42 31 31 26 19 19 19 16 15 16 16 14 14 14 11 12 16 14 11 14 13 15 5 12 13 13 15 13 14
49 51 50 49 44 54 52 50 64 77 62 59 47 46 43 56 62 44 36 29 32 28 24 20 21 22 17 15 16 13 14 12 15 16 15 15 12 13 17 18 9 12 10 10 16 18 20
43 43 47 46 48 55 51 50 58 81 59 61 63 44 44 19 55 45 41 41 35 30 24 20 20 21 19 14 15 14 14 15 13 16 16 16 10 11 17 14 16 16 17 16 18 17 19
36 33 41 53 45 57 51 52 69 86 56 69 60 47 30 33 47 49 48 39 34 30 27 22 23 18 20 15 16 15 9 14 8 13 16 11 12 13 8 8 10 14 19 19 20 18 18
30 38 36 38 42 48 49 48 71 81 66 68 53 46 31 41 40 62 41 33 31 33 24 21 20 17 24 20 15 13 13 13 15 12 10 14 12 9 5 5 1 9 7 9 10 11 12
30 40 35 39 45 49 49 58 63 71 67 72 47 37 33 41 42 47 37 35 32 28 26 21 23 20 23 19 16 13 12 11 10 13 15 14 13 9 5 8 11 15 8 8 5 5 4
31 32 33 40 46 50 55 60 57 67 73 71 55 44 20 42 45 50 41 35 33 30 27 30 26 19 20 18 15 9 7 9 7 4 12 14 15 13 7 3 4 3 9 8 6 4 3
36 36 34 40 45 50 51 54 56 60 79 66 51 26 25 38 32 46 46 40 33 28 26 27 28 22 18 17 16 10 10 10 7 9 6 9 13 15 12 7 7 9 12 13 5 4 9
39 38 42 46 44 53 53 52 63 64 74 64 49 32 18 34 32 44 37 41 25 28 30 29 27 24 21 15 15 10 10 13 9 6 6 6 7 9 12 7 7 10 6 4 9 9 15
34 38 41 43 46 41 51 65 55 80 71 57 41 41 19 21 40 45 44 41 30 26 24 29 28 21 20 16 12 12 11 12 14 7 11 8 10 7 8 1 8 7 11 13 16 20 23

GFSGBSN_700_spd_027.txt.gz
Wind_Speed
28 30 33 34 35 35 34 34 32 29 28 26 24 22 21 20 20 21 22 22 22 23 23 18 13 10 7 3 6 10 9 6 2 4 8 11 7 3 7 6 10 12 14 10 4 2 3
27 26 26 29 32 34 34 34 34 31 29 27 25 23 21 20 19 20 21 21 21 22 20 14 10 8 4 2 6 4 6 4 3 5 10 13 7 6 17 15 11 12 11 8 3 3 1
28 28 27 25 25 28 31 33 34 33 32 29 25 23 21 21 19 19 20 20 20 19 15 11 8 6 2 6 7 3 9 7 4 15 15 8 7 11 9 12 1 1 7 3 5 6 5
32 30 29 28 26 25 25 28 33 34 34 31 27 24 21 21 18 18 19 19 19 16 11 9 7 4 1 3 3 5 9 4 9 6 8 3 9 13 10 3 1 3 2 5 8 8 4
37 34 31 31 29 27 25 24 27 31 33 33 30 25 22 21 18 18 18 17 17 13 9 8 5 2 1 4 4 6 3 7 7 12 5 12 4 6 5 4 2 5 6 9 9 13 10
44 40 37 34 32 30 28 25 25 26 31 33 31 26 24 21 18 17 16 15 15 12 8 6 4 3 3 6 9 3 2 1 6 8 2 2 2 7 4 5 2 6 8 11 14 19 13
50 47 44 40 37 34 32 30 27 27 26 31 31 27 24 21 19 17 15 13 13 12 10 8 9 8 13 8 7 8 4 6 5 1 3 3 3 2 6 8 7 11 11 16 18 12 12
57 53 50 46 42 39 36 34 30 28 26 27 30 27 24 21 20 16 14 11 19 18 12 11 12 18 18 14 10 11 11 5 3 2 2 5 10 1 8 7 11 17 17 22 6 13 12
64 60 55 52 48 44 40 38 34 31 28 27 28 28 25 23 20 16 13 9 15 14 16 10 14 19 12 7 13 14 16 6 8 1 5 9 7 7 5 10 17 15 5 13 2 2 10
69 66 62 58 55 49 45 41 38 35 32 28 27 28 26 25 20 16 11 11 12 11 8 9 13 18 18 5 10 16 18 15 12 10 8 15 9 11 11 12 7 11 11 5 3 5 4
73 70 68 64 60 56 51 47 43 39 36 32 30 29 27 27 20 18 15 14 11 6 3 1 13 3 19 15 9 15 9 16 8 11 9 3 17 13 16 14 7 8 10 7 14 10 11
80 74 70 69 64 61 56 52 48 44 39 36 34 30 32 28 21 18 16 15 14 6 7 9 11 15 13 13 14 12 14 10 6 13 8 5 3 7 16 8 9 4 5 7 10 7 5
84 80 76 71 67 64 61 57 52 48 43 39 37 33 33 30 23 24 22 19 12 7 7 12 19 17 16 18 14 17 23 21 14 9 19 15 15 10 4 9 5 8 12 4 3 5 4
56 73 80 76 71 67 63 60 55 51 47 42 39 37 35 31 31 26 25 25 13 10 15 7 17 14 16 18 15 17 27 21 20 19 9 10 5 4 10 13 8 10 11 2 4 2 6
52 53 65 78 74 71 67 63 58 54 49 45 42 41 41 34 33 30 32 32 22 18 22 12 14 19 19 16 16 21 22 21 23 20 20 12 5 12 12 3 5 8 10 8 5 5 3
62 55 55 52 75 73 71 67 61 57 52 49 47 44 41 35 36 35 41 36 27 23 15 14 16 20 18 19 21 22 23 24 23 22 21 16 6 12 19 11 11 14 11 4 4 4 4
56 59 54 47 55 68 72 69 65 60 56 52 49 44 41 39 39 41 51 39 33 31 16 9 19 19 20 20 23 15 22 24 19 13 13 5 6 3 21 14 12 13 12 9 10 4 4
53 56 58 51 45 49 55 71 69 64 61 55 51 48 42 46 47 52 56 51 41 31 21 13 15 24 22 19 23 18 21 25 17 20 15 15 5 12 19 8 11 10 7 6 13 6 3
51 57 55 51 45 46 49 63 67 68 66 60 54 45 30 44 53 57 52 50 45 34 25 12 21 20 22 12 12 21 18 15 20 21 13 15 6 7 11 12 12 14 14 19 14 10 13
51 52 54 49 49 50 44 51 51 65 68 63 54 40 47 43 54 56 52 52 50 40 24 16 18 21 21 12 21 24 17 15 17 16 18 17 11 10 10 9 10 8 11 12 15 13 11
50 49 52 55 47 46 49 57 51 52 69 70 61 48 53 55 58 53 48 49 50 44 34 21 20 28 19 15 18 13 18 15 11 9 11 13 17 17 15 16 15 9 11 8 13 15 19
49 51 52 47 51 49 45 61 55 56 71 71 63 56 57 39 56 53 43 56 54 44 31 27 21 23 22 17 19 20 15 15 14 15 15 14 14 14 14 17 19 16 15 18 17 14 15
48 49 51 49 46 52 55 57 58 62 74 71 62 54 49 50 26 55 59 55 46 43 29 25 19 21 22 23 20 18 21 15 15 13 18 17 16 15 13 14 14 14 21 18 15 18 17
44 45 46 45 45 49 50 57 52 63 74 71 62 52 35 50 36 55 55 55 46 44 32 23 22 23 21 22 22 23 13 14 13 14 14 20 16 11 6 6 0 7 4 7 3 3 6
39 38 39 40 43 52 47 56 53 65 65 69 59 49 31 44 51 32 57 57 41 40 31 31 32 29 26 24 25 18 13 12 15 15 15 15 15 11 6 13 12 10 9 9 9 5 7
35 33 33 34 45 48 48 52 54 58 53 67 59 57 35 28 49 49 45 52 47 41 33 36 33 30 29 26 23 12 9 11 9 14 18 19 17 16 11 5 6 5 6 7 6 8 10
32 33 33 36 43 50 54 53 52 59 59 64 59 52 54 10 32 41 46 58 46 38 37 39 38 31 31 34 23 14 13 14 13 12 10 14 17 19 15 8 6 9 10 12 9 8 12
30 33 31 31 41 38 49 49 46 70 57 62 58 57 38 16 29 36 38 51 43 41 39 35 36 33 32 25 21 13 11 18 12 12 10 10 11 14 14 8 9 12 13 13 12 14 11
35 32 31 34 46 44 49 49 48 73 65 63 55 51 26 28 35 40 49 41 43 41 36 36 36 33 27 25 17 18 12 21 19 12 12 10 11 11 7 4 6 7 10 11 12 12 19

GFSGBSN_700_spd_030.txt.gz
Wind_Speed
27 27 27 30 32 33 33 33 33 32 30 30 28 26 24 22 20 20 20 20 20 21 21 19 14 11 7 5 5 6 6 5 2 2 6 9 10 5 7 16 17 17 2 8 4 7 6
27 26 24 23 25 28 30 32 32 33 32 31 29 28 25 23 21 20 20 20 19 19 19 15 11 9 6 5 2 4 4 4 1 5 14 11 2 2 11 10 9 12 7 2 5 8 4
29 28 26 23 22 21 23 26 28 32 32 30 30 28 25 23 21 19 19 19 19 18 18 13 9 7 5 5 3 4 9 14 9 16 12 3 4 5 8 6 1 7 9 7 9 9 3
34 32 30 27 23 22 21 21 22 25 30 31 31 29 26 23 22 20 18 18 18 17 17 11 7 5 5 7 2 7 8 12 11 10 8 5 7 8 8 4 6 1 5 7 12 10 2
41 37 34 32 28 30 23 23 20 22 23 29 30 30 27 24 22 20 18 18 18 17 15 10 6 3 2 3 2 10 5 5 5 4 6 8 6 6 5 3 2 4 3 8 16 10 6
46 44 39 37 33 30 28 29 26 21 24 24 26 29 27 25 23 20 19 18 17 18 15 9 6 5 5 9 10 5 6 3 4 8 3 5 6 7 7 3 10 6 6 3 7 7 18
55 50 46 43 39 35 32 30 27 25 25 24 22 25 25 25 23 20 18 18 16 19 14 11 8 12 16 14 12 8 7 2 3 2 5 5 5 4 6 7 7 3 2 18 20 13 22
60 58 54 50 45 41 37 33 32 30 28 24 22 19 23 25 23 20 18 16 17 18 16 13 13 18 18 15 13 11 8 5 5 3 1 2 0 3 4 11 3 8 15 16 15 11 13
66 63 61 57 52 48 43 38 35 33 31 27 23 19 21 23 24 21 16 15 22 16 17 10 12 17 18 14 11 19 14 9 5 3 3 9 2 6 10 11 13 16 17 12 8 4 10
72 69 67 63 59 55 49 43 40 37 34 30 27 21 19 24 24 20 17 18 15 13 11 9 13 17 24 13 13 20 18 15 12 9 11 11 7 9 12 10 9 12 7 9 7 2 1
76 73 72 69 64 60 55 50 45 41 39 34 31 25 20 25 23 20 19 16 14 8 4 3 12 9 23 20 9 22 15 19 18 14 16 7 9 13 11 11 9 9 11 11 6 3 4
80 79 75 72 70 66 61 56 50 46 42 39 34 30 26 24 23 22 19 17 14 7 9 11 14 14 25 21 15 19 13 16 14 10 8 6 6 1 4 9 6 6 7 8 7 7 2
76 79 80 77 73 70 66 63 57 51 48 44 39 34 29 24 26 25 22 18 12 8 8 14 18 17 17 18 22 19 18 16 15 12 17 11 9 4 4 7 7 6 7 4 3 1 4
50 63 68 76 78 73 70 66 62 57 52 48 43 39 33 27 31 28 26 22 14 11 16 7 21 18 19 18 18 21 18 18 18 16 6 13 3 11 8 7 8 8 11 5 4 2 4
47 47 55 59 69 77 74 69 66 62 56 51 45 44 41 29 35 32 32 34 19 18 24 17 24 24 20 20 18 22 24 19 24 24 23 9 9 10 15 12 4 2 4 6 5 3 1
52 44 51 54 53 64 76 72 69 64 60 55 50 48 46 34 39 35 40 43 29 25 13 21 22 23 21 21 24 23 24 13 23 18 18 22 13 15 14 19 16 15 7 3 4 3 3
54 52 46 57 57 54 58 74 72 68 63 57 51 50 49 41 41 41 53 43 41 34 21 9 17 17 24 21 25 27 21 23 21 19 20 25 22 12 14 19 24 14 14 12 12 4 4
54 56 51 57 66 62 48 59 72 72 66 59 53 50 51 48 46 51 57 49 46 41 34 21 14 11 23 21 25 26 20 21 15 21 21 20 13 10 16 10 9 11 13 14 9 6 6
55 57 56 50 58 59 53 48 64 70 68 61 55 43 35 51 55 59 55 52 47 45 40 33 22 11 13 27 22 21 25 21 18 21 28 23 13 11 16 17 16 17 15 13 14 13 14
55 55 55 51 56 58 59 51 46 61 62 58 54 43 38 48 60 59 60 56 52 46 46 35 25 20 14 17 11 18 25 18 23 19 26 21 18 19 19 13 10 8 11 11 13 10 14
55 55 54 53 53 56 54 48 48 48 56 63 52 50 58 61 68 65 56 56 56 55 47 39 30 26 17 14 11 17 18 23 25 24 23 21 20 18 17 17 17 12 9 11 13 11 9
53 53 53 52 50 55 53 52 53 52 58 67 53 48 54 47 63 65 61 60 56 51 47 43 32 24 19 22 14 24 18 23 23 21 19 17 19 22 23 21 21 21 19 16 18 17 18
52 48 49 49 52 53 50 60 50 60 64 72 49 52 45 49 53 64 72 63 56 51 47 44 32 21 20 22 16 18 16 19 17 13 15 17 18 16 18 16 15 16 26 26 24 26 22
48 45 46 47 50 48 58 53 52 65 64 79 51 45 51 46 44 64 64 62 52 54 47 42 30 27 17 23 21 20 15 17 16 18 18 15 19 17 12 12 1 12 8 9 13 13 9
44 43 41 47 49 61 52 52 62 64 61 81 54 50 37 49 55 42 45 60 49 50 44 44 34 27 21 23 25 22 20 18 18 18 16 17 19 14 7 14 12 10 10 13 13 12 11
39 37 40 49 58 57 44 59 61 64 62 78 61 45 43 31 51 52 28 39 53 52 44 49 40 18 28 30 28 19 17 16 12 15 20 20 20 20 12 5 8 10 22 16 15 15 16
35 38 44 49 49 48 49 52 64 67 56 81 67 46 47 30 34 33 47 40 49 48 48 46 40 29 32 33 28 20 18 20 16 17 20 22 22 22 20 13 11 16 13 11 15 12 17
38 38 40 42 43 45 47 53 61 63 50 84 73 45 42 30 31 30 42 36 45 52 55 48 39 38 41 35 29 23 14 21 19 17 20 19 16 17 20 12 13 15 19 21 16 14 14
35 35 35 37 40 43 47 47 65 56 51 78 72 51 45 30 14 42 43 54 36 51 51 39 40 37 33 34 22 25 16 23 22 18 20 15 20 15 13 8 9 9 15 15 12 11 12

GFSGBSN_700_spd_033.txt.gz
Wind_Speed
29 29 29 31 31 32 33 33 33 33 32 30 29 28 27 26 25 23 23 22 21 21 21 20 16 11 8 8 7 6 6 2 2 5 8 9 6 5 4 5 7 7 12 3 7 4 5
31 29 28 28 28 28 28 30 32 33 33 32 32 30 29 27 26 24 23 22 21 20 20 18 14 9 8 6 4 2 2 6 6 9 12 8 2 1 3 3 6 12 3 7 6 6 3
36 33 31 28 27 26 25 24 25 26 29 31 32 30 29 27 27 25 23 22 20 20 19 17 13 9 7 5 4 2 0 11 12 10 7 8 2 3 4 3 3 6 8 6 0 9 8
41 39 35 33 29 28 26 24 22 22 22 24 28 30 29 27 27 25 23 22 20 20 18 17 12 8 5 2 4 7 7 12 12 10 4 6 5 6 5 2 4 1 10 3 5 9 6
47 44 42 38 35 31 29 26 23 22 20 21 20 24 27 26 27 25 23 22 21 20 17 15 11 8 5 5 7 10 8 8 8 6 8 13 9 5 4 3 4 4 4 6 12 7 5
53 51 47 44 41 37 33 31 32 30 22 21 17 17 21 26 25 25 24 22 22 19 18 14 11 8 9 10 15 15 10 8 5 3 0 4 6 7 9 4 7 3 1 4 2 8 11
58 56 54 50 47 42 39 35 31 34 37 30 25 24 24 24 25 24 23 23 21 20 20 14 9 14 12 13 15 13 10 6 5 5 0 6 3 3 7 6 3 2 4 5 1 7 20
63 61 59 57 53 48 44 40 37 33 30 27 25 23 25 24 24 25 22 23 23 23 20 16 15 17 17 18 17 14 13 10 6 7 3 4 2 3 6 6 5 2 11 5 11 12 14
70 66 63 61 59 55 49 45 42 37 33 29 24 20 19 20 19 22 23 24 21 19 21 15 17 17 22 18 17 19 15 11 7 8 5 1 4 3 6 8 9 11 14 5 10 9 10
74 73 68 66 63 60 57 52 47 42 38 34 28 24 21 21 20 20 24 21 17 16 12 12 16 16 28 22 19 17 20 15 12 10 7 7 7 9 13 11 9 14 9 7 8 5 3
72 77 75 71 68 65 62 58 52 47 42 38 33 28 25 23 17 20 22 17 15 12 3 4 14 12 27 24 9 24 23 19 18 14 9 11 9 16 17 15 10 13 8 6 6 4 5
58 69 76 76 74 68 66 62 59 53 48 43 38 32 29 25 20 21 19 16 13 8 8 8 15 17 28 28 12 25 22 18 16 16 13 8 3 8 8 9 11 6 8 6 7 7 1
53 54 62 74 76 74 69 67 62 58 53 48 42 36 33 27 20 22 21 19 13 10 9 14 21 18 23 30 22 22 26 22 22 16 16 9 9 11 7 7 8 5 5 3 3 2 4
55 53 50 55 69 76 74 70 68 62 57 53 47 42 37 32 25 27 26 23 16 9 18 11 20 17 19 28 24 24 23 22 20 18 9 9 4 12 7 4 5 5 4 2 3 3 4
60 54 51 48 51 63 74 73 69 67 62 57 53 48 44 38 31 32 34 37 18 19 25 11 23 24 23 24 21 24 25 24 22 19 14 7 5 6 10 9 9 8 2 6 3 2 1
57 59 53 49 47 53 54 70 71 69 67 62 58 53 51 40 35 36 41 43 29 29 13 22 20 26 28 25 25 27 26 25 24 23 24 19 13 13 12 13 14 10 10 4 4 2 3
55 57 56 50 47 47 53 53 62 68 68 64 60 56 57 45 41 41 55 52 28 32 20 13 17 23 28 26 27 26 25 24 18 25 28 22 19 14 13 19 23 26 20 14 11 6 4
61 59 58 53 47 43 51 53 45 58 65 63 62 60 59 53 47 53 59 49 40 39 35 21 19 17 25 28 27 27 29 27 21 23 22 22 15 20 22 15 9 19 13 12 11 7 9
61 63 58 56 47 45 55 56 47 47 61 62 61 52 35 52 54 62 56 56 51 46 46 39 21 17 16 23 32 27 27 26 26 19 26 24 16 14 11 14 11 13 15 18 18 19 14
60 64 60 57 51 50 55 53 52 43 54 58 54 42 41 44 64 60 61 53 55 49 48 45 39 22 15 15 23 29 28 26 28 26 18 24 24 19 18 18 19 16 14 17 19 16 18
55 62 61 58 55 54 57 54 51 52 51 58 55 46 53 57 70 66 57 57 53 53 50 48 46 40 23 16 17 19 23 26 27 23 24 30 23 23 19 15 18 19 20 15 17 19 21
53 61 60 59 58 57 56 67 50 48 57 58 58 49 48 50 63 70 54 61 56 55 39 47 49 42 28 22 16 18 17 22 30 23 25 31 17 18 16 18 22 26 26 25 22 21 22
54 60 59 57 56 57 51 56 56 54 59 66 61 45 47 55 47 54 79 67 64 53 55 43 41 42 32 25 15 13 20 20 26 27 31 27 24 20 21 21 21 23 27 30 33 31 26
53 57 58 55 56 57 51 52 52 56 58 67 71 51 40 50 52 68 65 58 61 61 53 48 32 40 32 20 20 19 18 25 26 27 25 25 21 21 11 14 2 19 20 22 26 29 32
51 55 52 55 53 53 53 52 51 51 64 60 70 60 30 33 50 55 50 56 57 56 52 50 39 38 31 23 14 21 25 25 26 25 24 19 18 15 10 17 17 14 13 16 15 14 14
50 52 50 49 50 51 50 51 56 61 73 61 67 70 43 32 32 44 55 44 61 60 49 47 43 33 35 30 27 24 19 20 19 22 24 22 20 18 13 7 8 25 21 23 17 15 18
44 44 45 42 45 45 47 45 54 68 58 70 70 55 49 40 30 28 48 43 40 55 49 46 42 42 31 26 33 22 24 24 24 29 21 23 22 23 24 15 15 18 15 14 21 17 21
40 43 39 40 39 42 46 50 63 58 54 72 62 50 49 40 34 37 38 40 22 38 54 48 41 47 45 31 36 24 13 28 26 25 29 31 25 23 24 15 14 20 20 25 20 20 13
38 37 35 38 40 40 42 57 47 58 61 67 67 44 58 29 24 34 34 41 46 33 45 44 49 38 37 32 27 31 17 26 29 26 27 25 26 22 18 17 14 9 14 23 24 19 13

GFSGBSN_700_spd_036.txt.gz
Wind_Speed
33 32 32 31 31 32 34 34 34 33 32 31 31 30 28 27 26 26 25 24 24 23 21 20 17 14 11 9 6 5 4 5 3 4 9 7 3 8 7 4 2 8 7 4 2 5 4
36 34 33 32 31 30 29 30 31 32 33 33 32 31 30 29 29 28 26 26 26 23 21 18 17 13 11 8 6 3 3 4 6 9 9 5 2 1 4 4 3 5 1 6 4 4 1
41 39 37 34 32 31 29 28 27 28 29 30 31 30 30 31 30 29 27 27 25 22 21 18 16 12 10 8 4 3 1 4 9 13 6 2 1 1 4 1 1 2 6 5 4 2 3
46 45 42 39 37 34 32 30 27 26 25 25 26 28 29 30 30 29 27 26 25 22 21 18 15 11 9 5 8 6 5 7 9 9 4 7 7 6 5 2 3 2 9 4 6 7 3
51 49 48 45 42 39 36 33 30 28 25 23 21 22 24 27 28 27 27 25 25 22 21 20 15 12 9 10 11 11 10 8 8 9 8 12 13 10 8 3 5 3 3 7 9 11 4
56 54 53 51 48 45 41 38 35 31 28 23 21 20 20 19 20 22 26 25 25 23 22 21 17 13 12 13 17 16 14 12 10 7 4 7 8 9 9 3 4 6 5 4 2 4 10
61 59 57 56 53 51 47 44 39 36 32 28 25 22 22 24 23 16 25 26 23 24 24 22 16 11 10 16 15 16 14 13 9 8 3 1 1 3 8 6 7 4 4 4 3 3 13
67 65 62 60 58 56 53 49 45 41 36 33 32 31 27 25 21 28 23 27 23 24 26 21 19 18 19 19 21 21 18 15 11 9 5 3 2 5 7 5 5 3 8 6 5 9 13
65 69 68 65 62 60 58 55 51 46 42 36 32 29 28 26 30 28 33 25 19 23 25 24 23 21 23 22 23 22 21 16 10 12 8 6 3 5 8 11 8 4 8 8 9 10 5
56 63 67 70 67 63 62 60 57 51 46 41 36 31 27 26 24 22 21 22 16 21 17 24 19 23 28 27 27 23 22 18 14 13 10 8 8 10 8 11 9 9 6 9 7 7 0
49 49 57 65 70 68 65 63 60 57 51 45 40 36 31 29 25 19 18 15 11 10 3 7 16 15 27 31 16 27 24 21 18 15 12 8 8 12 14 13 8 11 5 5 2 5 5
53 49 46 48 60 68 68 66 64 60 56 51 44 40 36 32 28 19 16 15 13 10 8 6 12 19 27 33 17 23 26 23 18 18 17 16 12 11 18 12 10 8 8 7 4 5 1
55 55 51 47 48 54 66 68 66 64 60 56 49 44 40 35 28 23 17 15 12 13 12 12 15 19 25 34 25 20 31 28 22 16 20 19 11 8 9 7 6 7 4 3 1 2 4
59 58 59 54 51 49 51 65 69 65 64 60 55 50 45 40 31 28 26 26 17 10 26 8 18 20 26 30 28 23 30 28 23 22 10 14 11 13 9 6 6 4 3 3 2 2 3
54 59 60 59 56 50 48 49 63 67 65 64 59 55 51 45 35 32 32 35 20 13 20 20 17 22 25 30 29 28 26 32 27 24 21 9 11 8 10 9 5 5 5 4 3 3 1
54 52 50 59 58 53 48 44 50 54 65 66 62 60 57 48 40 39 41 46 30 23 13 30 17 20 27 27 29 33 29 32 27 23 23 14 8 10 8 9 10 10 7 4 3 2 3
57 55 53 55 54 53 48 45 44 45 50 62 63 62 61 51 45 42 54 50 43 27 26 16 26 17 25 29 31 26 28 17 31 25 23 23 21 19 13 13 11 14 17 13 9 4 4
58 58 57 56 58 53 50 45 41 46 51 47 59 63 62 54 48 54 59 53 43 41 33 21 18 20 25 26 30 33 29 35 19 26 28 23 14 22 24 19 17 16 17 18 16 5 8
62 58 58 57 60 54 52 46 43 49 54 48 50 53 43 52 54 64 52 53 47 46 40 39 23 22 19 20 25 28 31 33 31 21 26 25 18 19 15 17 17 11 11 13 12 13 14
56 62 58 59 62 57 53 49 45 54 51 43 51 42 36 40 64 68 58 47 55 50 44 42 39 19 19 15 19 25 27 26 28 27 22 27 25 22 21 23 14 16 15 14 13 12 17
59 59 57 60 62 59 53 50 49 59 54 49 52 44 53 53 66 73 61 54 53 55 52 47 47 42 26 13 12 23 27 30 27 23 26 28 30 28 26 21 19 16 19 19 20 21 22
56 59 61 58 61 59 54 53 52 63 53 51 52 46 48 57 66 67 48 60 50 55 45 56 48 43 42 27 10 17 19 26 26 25 25 28 25 27 27 25 20 19 21 22 23 27 28
53 55 59 55 61 56 56 56 58 59 52 55 55 56 49 55 53 63 79 60 51 52 56 42 40 40 44 37 19 14 17 18 20 25 28 26 30 26 23 21 19 24 30 29 31 31 31
49 51 54 53 55 55 57 54 55 62 60 55 64 56 51 44 50 73 59 66 41 56 55 53 37 31 40 35 32 28 24 21 21 23 29 33 27 29 18 16 4 28 29 24 24 25 28
48 48 51 53 52 54 56 55 65 60 60 59 61 60 50 45 44 48 50 37 50 42 52 49 40 19 25 33 31 22 22 24 22 26 30 28 27 22 14 18 23 21 17 16 15 19 18
46 47 45 49 48 52 55 56 54 57 54 53 60 52 49 34 44 43 36 40 45 56 53 49 41 36 26 23 20 22 15 18 15 28 31 32 31 28 17 8 8 24 20 24 24 27 22
43 44 50 47 48 52 51 55 61 61 53 57 53 59 56 24 34 31 50 39 37 44 56 55 47 26 34 29 32 24 23 18 25 30 25 29 27 26 26 16 17 21 16 15 18 29 17
39 45 44 45 50 51 47 51 54 57 54 56 55 70 58 34 32 25 35 41 47 46 40 49 36 45 39 33 26 23 23 27 26 30 38 35 30 26 25 16 15 22 20 27 24 18 18
37 34 44 45 46 43 43 51 48 49 52 50 54 65 66 20 35 23 31 36 30 30 42 33 49 38 37 34 31 26 23 23 29 30 33 36 36 31 27 25 25 18 13 15 20 23 12

GFSGBSN_700_spd_039.txt.gz
Wind_Speed
35 34 33 32 32 32 32 33 33 32 33 31 31 30 29 28 27 26 25 25 24 22 21 20 17 16 14 10 9 7 4 3 3 4 6 6 6 6 4 1 1 6 6 1 6 1 5
39 38 37 36 33 32 32 31 31 30 31 31 31 31 31 30 30 29 28 27 26 23 22 20 17 17 14 10 8 6 3 2 7 8 8 6 7 6 4 2 1 2 2 3 6 4 4
43 42 40 39 38 35 33 31 30 29 29 28 28 29 31 31 31 30 30 29 27 24 22 20 17 16 14 11 9 7 4 5 10 12 9 8 7 3 5 3 2 3 6 5 6 2 3
47 46 45 43 41 40 38 34 32 31 29 28 27 25 26 28 30 31 30 30 28 24 22 20 17 16 13 10 11 9 6 8 11 11 9 10 8 5 5 6 5 3 4 3 7 4 2
52 51 49 48 46 44 42 39 36 32 31 29 26 25 23 24 25 26 28 29 27 24 22 21 17 16 13 12 13 13 11 12 11 11 10 10 11 7 8 9 5 1 2 7 5 8 5
56 55 54 52 51 49 46 44 41 37 33 30 29 26 23 22 21 21 22 25 26 24 22 22 18 17 15 13 18 18 16 14 12 11 9 8 9 9 10 10 6 6 3 1 1 5 12
55 57 58 57 55 53 51 49 46 42 38 34 31 29 26 22 19 15 17 17 22 24 20 23 16 10 12 16 20 21 18 16 14 11 8 3 4 7 8 8 9 8 6 6 2 4 7
50 53 55 58 60 57 55 53 50 47 43 39 35 32 28 26 24 24 20 19 18 23 28 28 24 21 19 18 22 23 22 21 18 14 9 5 4 3 9 9 8 5 4 2 5 3 7
46 46 50 53 56 61 59 57 54 52 48 44 40 36 33 33 32 27 24 25 26 25 25 32 26 26 20 25 24 28 25 21 18 16 11 9 5 4 9 12 9 6 4 3 3 4 4
49 48 47 46 50 55 61 60 59 56 52 49 44 39 35 32 29 26 25 25 24 17 17 29 26 27 23 28 28 29 27 22 20 17 13 9 7 6 8 11 12 10 3 5 3 2 2
52 49 49 47 45 45 54 61 62 60 56 53 48 43 39 36 28 25 22 22 16 10 5 8 17 25 21 33 25 33 28 26 23 18 17 10 3 8 14 13 13 7 8 4 3 3 2
53 54 52 50 49 44 45 53 62 63 60 57 53 48 43 40 31 26 22 19 15 10 8 6 9 18 25 33 26 31 31 29 24 20 16 14 11 10 13 14 14 12 8 6 4 4 2
49 52 54 54 53 48 44 43 49 61 63 59 55 52 48 42 35 29 24 18 14 11 9 10 13 18 25 36 33 25 36 35 29 23 22 17 16 12 7 14 12 12 8 2 2 2 3
45 43 48 54 55 55 48 43 39 48 61 62 58 55 53 47 38 32 29 24 17 11 21 5 16 18 25 32 32 23 35 36 32 23 18 17 7 10 10 13 10 10 10 5 3 3 1
54 52 48 47 53 57 54 50 42 38 47 52 59 59 58 51 42 36 34 36 21 22 15 24 7 17 22 29 30 30 28 38 35 31 17 11 9 12 11 12 12 11 9 8 4 2 1
57 57 55 50 50 53 55 52 48 41 36 46 45 60 63 54 46 41 42 46 36 31 17 19 19 15 22 28 27 32 25 31 34 29 24 15 7 12 14 14 12 10 6 4 4 3 3
55 56 54 52 49 48 49 50 49 44 37 40 37 44 66 56 50 46 54 53 45 33 29 18 16 14 17 26 32 31 23 14 35 32 25 23 15 10 10 10 12 12 13 10 8 5 3
57 58 57 55 52 51 49 48 49 43 38 41 45 50 55 52 51 58 65 53 41 42 31 33 19 22 16 21 27 34 35 29 15 32 30 23 11 20 22 17 17 15 14 17 12 7 8
62 61 56 56 54 53 53 51 48 45 42 46 50 46 39 38 53 63 65 55 48 37 43 34 31 19 21 15 20 27 31 31 20 28 28 25 22 16 12 13 18 18 18 14 17 17 14
56 57 58 58 55 56 56 55 50 46 48 57 51 42 34 36 62 71 58 50 47 47 41 46 33 22 18 13 17 16 27 28 26 30 19 21 28 24 23 21 14 15 14 17 18 15 17
55 54 56 61 59 56 57 58 53 48 52 61 59 36 52 52 60 71 66 63 60 53 52 44 44 40 27 16 11 21 21 25 27 33 32 31 27 25 26 22 22 21 22 18 22 21 21
58 58 55 56 57 59 55 60 55 52 55 62 50 46 57 31 63 65 46 54 56 56 50 56 49 42 37 29 11 14 20 20 24 26 30 33 30 25 27 25 26 27 23 21 21 23 26
55 56 53 53 57 56 55 55 55 55 59 65 68 55 52 64 40 53 72 53 45 47 57 42 50 41 41 38 25 19 11 11 14 18 24 30 29 28 23 25 24 27 30 26 26 28 33
48 53 58 53 56 56 56 54 56 56 63 69 69 58 53 53 45 55 55 44 47 54 53 51 43 35 42 35 30 31 33 28 20 23 19 24 28 28 20 19 8 24 27 26 27 30 30
40 48 51 54 54 53 54 56 56 54 60 70 66 56 52 47 46 52 46 45 36 40 47 39 40 31 32 16 29 26 19 27 29 25 24 24 26 20 14 22 22 22 22 22 24 37 25
32 43 51 51 52 54 55 53 58 52 61 67 64 54 51 47 40 48 40 41 42 40 35 44 32 34 32 21 17 18 15 20 12 17 26 26 25 29 18 10 10 26 23 20 16 39 31
31 42 43 46 50 53 56 50 56 49 60 66 60 53 48 45 34 32 48 35 38 41 39 39 40 26 30 23 23 17 26 21 18 22 24 29 27 30 28 16 19 21 19 18 17 34 21
33 36 39 43 48 44 54 46 50 48 61 64 59 47 50 27 45 32 30 33 42 37 42 34 31 36 29 36 24 19 15 27 24 20 29 33 30 25 29 21 15 26 25 27 23 22 23
32 33 37 36 42 46 39 49 40 48 59 59 55 48 49 52 18 22 25 43 31 30 26 31 43 35 44 27 29 21 19 22 27 26 26 30 33 35 29 33 32 24 26 27 25 21 18

GFSGBSN_700_spd_042.txt.gz
Wind_Speed
36 36 35 33 33 32 31 30 28 29 29 29 31 30 30 30 30 28 27 25 24 21 20 19 18 16 15 13 12 12 8 7 5 5 6 7 6 7 3 3 5 4 8 5 7 2 6
39 39 38 37 36 35 33 31 30 28 28 28 28 30 31 31 31 32 30 29 27 25 22 21 19 17 16 14 12 11 9 7 6 8 8 8 8 8 7 6 5 8 4 2 4 7 3
43 42 41 40 39 38 37 35 33 30 29 28 27 27 28 30 31 32 32 31 30 28 25 22 20 18 16 14 13 11 10 9 9 12 10 8 8 8 9 6 8 6 1 2 2 4 4
46 46 46 45 43 41 40 38 36 34 31 29 28 27 27 27 29 30 31 31 31 28 26 23 20 18 16 14 12 13 12 11 12 12 11 9 8 6 7 10 7 5 5 3 5 7 2
47 48 48 48 49 46 44 42 39 37 35 32 30 28 27 26 26 27 26 28 30 29 26 23 21 18 17 16 14 16 14 14 15 14 11 9 8 8 9 8 9 8 6 8 6 7 5
45 46 48 50 50 50 49 46 44 40 38 36 33 31 29 28 26 24 22 22 24 25 24 23 22 17 17 12 15 18 17 17 17 14 11 10 9 8 10 10 14 9 7 4 3 5 8
43 44 44 46 49 52 52 50 49 46 41 39 37 34 32 29 27 24 19 14 17 21 23 23 13 16 11 12 17 22 21 19 17 15 10 10 8 10 10 12 11 8 8 7 4 5 8
41 42 42 43 45 47 52 53 51 50 47 43 40 37 34 31 28 25 20 19 19 21 21 20 22 25 20 18 19 26 25 23 21 15 13 10 9 8 11 12 10 8 8 7 7 9 7
44 44 44 43 42 43 46 51 53 52 51 48 44 41 38 35 31 27 24 23 21 25 29 33 32 33 26 25 24 29 30 26 22 17 15 12 7 7 9 12 10 9 7 6 5 7 9
49 49 48 47 45 44 42 44 49 55 53 51 49 45 41 38 35 30 28 25 22 21 21 34 39 29 32 29 29 26 31 27 24 21 16 13 14 9 8 11 12 12 7 5 7 6 7
44 49 51 51 50 47 45 42 43 49 54 55 53 50 45 41 38 31 28 23 19 15 8 8 15 21 28 35 26 31 32 33 23 22 22 16 14 13 11 12 11 12 8 8 5 8 5
43 41 43 53 52 50 49 45 42 40 44 54 56 53 49 45 39 32 28 21 15 8 10 5 9 14 25 30 27 24 36 35 24 21 21 16 16 11 10 14 13 12 8 8 5 7 8
45 43 42 38 49 52 51 50 45 42 38 44 52 57 54 48 39 35 30 22 13 17 7 8 11 14 19 28 26 27 39 39 30 25 24 20 18 13 11 11 15 12 9 10 8 7 7
47 46 45 42 39 46 53 53 50 44 40 38 45 54 56 52 42 38 33 26 20 17 28 5 10 11 17 21 23 24 32 35 32 26 20 23 17 19 14 15 16 16 14 9 4 5 4
52 52 48 47 43 41 43 52 53 49 40 36 34 42 57 53 45 41 36 34 31 27 16 26 5 10 16 21 21 21 30 37 33 30 22 22 18 12 13 14 14 12 13 11 5 5 5
51 49 52 49 47 46 45 43 49 50 43 38 31 38 54 55 45 43 44 51 35 25 27 17 19 11 17 22 23 26 26 29 31 30 24 12 15 15 18 17 15 11 11 7 9 5 6
51 50 46 47 48 45 46 48 43 43 43 37 30 35 48 53 41 44 45 62 46 29 30 20 21 16 12 19 27 26 22 16 34 31 30 18 14 11 18 18 16 15 11 10 7 6 5
59 56 51 52 50 50 47 46 44 42 40 39 37 42 43 43 46 54 57 58 29 37 32 31 22 14 16 17 25 26 31 25 13 29 36 26 15 14 18 15 15 14 14 13 11 8 8
52 55 59 59 53 54 52 49 49 46 46 45 46 46 38 34 55 50 68 47 39 29 36 30 26 25 20 17 16 24 23 28 19 21 31 30 19 19 15 15 17 15 16 16 15 17 16
48 48 50 52 57 55 53 53 53 52 51 47 50 47 31 32 47 65 62 41 46 36 34 31 27 29 22 23 19 13 25 26 30 22 28 29 24 27 21 20 14 15 18 18 17 13 15
45 47 47 48 50 56 56 51 58 58 55 54 61 47 51 53 48 63 57 44 41 43 42 31 32 31 25 21 19 24 20 25 24 31 27 33 27 26 24 21 21 21 21 18 19 18 19
50 52 51 49 49 52 56 56 57 60 57 63 65 49 52 44 47 60 69 55 44 50 36 43 34 36 30 23 14 10 19 20 22 29 30 32 23 19 19 20 24 24 23 22 22 21 21
48 50 56 55 51 52 54 59 55 62 60 70 65 57 41 52 46 54 59 73 45 39 46 33 36 29 43 37 18 14 18 15 9 10 30 32 30 23 24 21 19 25 29 25 23 24 24
45 49 53 61 59 56 55 59 55 62 60 68 66 69 45 35 44 53 55 54 49 39 42 33 29 31 31 38 35 30 28 24 21 18 17 20 30 22 19 17 9 26 20 19 24 25 24
42 49 55 59 62 58 56 60 55 70 58 65 64 68 56 37 37 41 44 49 42 41 34 37 23 24 31 32 31 28 35 31 30 21 20 21 22 15 12 17 18 20 23 23 23 27 20
26 27 45 55 52 57 56 59 58 64 55 63 59 64 44 49 42 35 32 39 48 42 33 38 29 26 24 30 21 14 14 30 11 13 22 23 26 22 18 11 9 21 22 23 16 36 17
10 17 42 42 50 50 52 54 56 65 54 64 53 60 53 35 30 30 33 39 33 39 39 33 30 33 30 29 24 18 16 18 27 17 18 27 28 28 25 13 14 18 18 17 15 28 19
17 25 36 46 49 45 49 50 43 58 55 60 50 59 56 34 30 27 35 30 31 39 38 32 35 31 31 27 22 18 20 21 24 25 24 22 24 22 20 15 15 21 21 23 28 22 20
30 30 37 42 45 42 45 50 49 48 57 53 50 57 60 42 30 33 35 40 38 37 36 36 43 35 31 24 20 15 20 18 23 27 28 25 24 21 26 24 28 26 26 27 24 23 25

GFSGBSN_700_spd_045.txt.gz
Wind_Speed
37 37 37 34 34 33 31 31 30 29 28 28 27 29 28 29 29 28 28 27 25 25 23 23 22 22 18 15 13 14 14 12 10 8 7 7 6 5 7 6 5 7 7 8 8 6 5
39 38 38 38 36 36 35 33 32 30 29 28 28 28 27 28 30 29 29 28 28 27 27 26 25 24 21 17 18 14 13 12 11 10 9 9 6 9 7 9 8 6 8 5 4 5 4
40 41 41 40 39 38 38 36 35 33 32 30 29 28 28 27 28 29 28 28 29 29 29 28 27 26 24 17 17 15 12 13 12 12 10 10 9 6 7 6 10 8 10 10 3 8 9
41 42 43 42 42 42 41 39 38 36 34 33 31 30 29 27 27 27 26 27 29 29 28 27 26 27 26 21 18 14 14 14 14 14 13 13 11 11 10 9 8 9 11 8 7 9 7
40 42 43 44 45 44 44 43 41 39 37 35 34 32 30 28 26 25 24 25 27 26 26 26 27 24 26 22 18 15 15 15 14 16 14 11 10 10 10 10 12 14 9 10 11 8 5
38 39 40 42 44 45 45 46 45 42 41 38 37 35 33 30 28 24 24 23 24 24 23 23 25 22 22 15 14 16 16 19 17 17 15 12 10 11 12 15 19 11 14 10 6 13 7
38 38 39 39 40 42 44 46 47 46 44 42 40 37 35 32 30 27 24 22 21 19 23 20 14 21 22 16 19 17 19 20 18 16 15 12 13 16 13 16 17 10 10 10 6 4 4
37 38 38 39 39 40 40 42 45 47 48 46 44 41 38 35 31 29 25 22 23 23 27 21 19 27 19 19 16 20 22 23 21 20 16 14 16 12 11 12 12 10 11 12 6 7 7
41 41 41 41 41 41 40 40 41 43 46 49 48 44 41 38 34 30 28 24 22 24 30 32 26 25 24 25 23 20 24 24 21 20 19 18 5 10 8 10 12 12 13 5 9 7 11
44 44 44 44 44 44 43 41 39 38 39 43 48 48 45 40 35 33 29 26 22 22 21 25 32 33 34 33 36 26 26 26 23 23 20 19 15 9 10 13 13 14 12 9 9 13 10
42 41 42 44 46 46 46 45 43 39 37 37 40 48 48 43 43 32 32 25 19 15 8 7 19 21 20 37 22 34 30 30 28 23 23 21 17 15 14 14 13 13 6 8 10 14 16
37 37 38 39 41 42 45 48 47 44 39 36 35 39 48 48 43 35 31 24 15 9 16 10 12 11 19 23 24 14 33 31 26 23 22 21 15 16 15 14 14 12 9 10 10 13 13
39 40 39 38 38 38 41 40 47 48 42 38 36 35 40 49 43 32 28 22 14 23 11 21 13 12 15 17 29 25 34 35 35 32 31 24 21 19 15 13 14 14 14 14 11 8 10
41 41 39 37 36 36 39 42 38 45 45 39 36 35 35 42 40 41 27 30 25 27 38 4 12 15 16 18 28 29 31 38 36 31 23 26 25 24 19 19 18 19 19 11 5 7 7
43 41 41 40 40 39 38 40 40 38 43 39 37 38 37 37 40 40 36 36 54 44 16 36 8 13 17 19 21 30 35 37 38 36 31 24 26 13 24 18 21 21 26 18 9 10 7
45 43 44 47 46 43 41 40 42 38 34 31 36 39 40 34 34 42 45 38 45 38 33 20 36 14 17 20 25 32 34 35 36 36 28 19 16 18 16 17 21 18 19 17 16 6 9
49 51 52 52 50 50 45 43 42 39 31 33 32 37 41 36 32 41 47 55 51 34 25 34 25 32 19 20 27 28 27 18 34 33 32 26 18 19 17 22 22 23 15 18 12 16 6
56 58 57 54 49 45 43 43 39 39 35 34 37 45 34 36 39 45 49 65 51 33 34 32 27 28 27 18 24 28 30 30 22 32 33 30 19 18 22 21 23 21 25 23 20 17 13
60 58 54 52 50 53 47 44 44 41 42 41 47 44 43 35 48 49 52 66 50 41 38 34 31 24 23 22 18 25 25 27 15 31 33 30 28 21 20 18 20 21 19 19 20 16 18
56 55 52 53 54 51 54 51 47 47 47 48 53 47 32 41 45 40 54 61 57 42 36 37 36 27 23 22 20 10 25 21 25 18 32 32 27 31 25 27 22 25 23 23 23 18 19
52 51 51 46 46 48 50 57 54 52 53 56 64 44 54 54 54 54 51 51 53 57 45 32 38 36 34 27 21 22 12 21 25 29 27 30 36 30 30 25 19 24 25 26 29 26 26
48 48 49 48 48 47 48 54 58 54 58 63 64 49 55 39 53 47 44 52 48 51 51 47 36 35 33 30 24 23 18 16 15 26 33 26 29 32 34 27 25 24 25 26 26 25 26
48 50 50 51 50 51 50 50 58 65 62 69 71 65 40 52 40 46 48 49 58 45 49 49 42 33 34 28 19 15 21 26 20 11 21 28 27 29 27 26 26 30 28 27 25 26 24
47 47 47 48 51 53 54 54 57 61 64 66 69 66 45 40 43 44 44 43 49 48 52 44 37 37 30 32 24 21 20 25 21 14 10 19 20 29 22 20 19 23 23 25 28 29 26
40 39 39 42 48 54 59 56 58 61 54 56 61 67 52 42 38 41 36 37 38 45 41 45 41 29 30 20 20 18 26 29 22 29 12 17 17 20 22 24 23 23 23 20 22 24 23
42 44 40 42 47 51 58 58 56 58 62 83 66 59 56 40 38 33 36 35 37 45 44 36 41 34 24 21 19 24 21 21 21 13 27 22 20 23 15 20 19 27 25 17 18 28 20
30 41 41 42 44 51 53 60 56 56 61 72 61 59 63 49 31 24 33 32 36 43 47 32 41 35 30 28 24 26 26 24 30 24 14 22 23 26 25 15 16 18 17 20 22 26 10
16 17 30 40 47 52 53 58 55 55 64 64 59 55 61 49 35 31 19 28 35 39 45 45 38 37 35 26 25 22 18 27 25 27 30 15 17 19 22 25 22 17 20 22 25 23 18
7 10 12 27 46 53 53 52 54 54 50 58 47 47 58 37 31 28 33 31 30 33 47 36 44 41 37 30 24 20 20 20 24 21 21 31 25 17 20 20 27 25 27 24 21 20 23

GFSGBSN_700_spd_048.txt.gz
Wind_Speed
35 35 34 34 34 34 34 33 33 32 31 29 28 27 26 27 26 26 26 27 26 26 23 23 21 21 19 21 17 23 14 15 14 10 8 7 7 8 12 13 12 13 14 13 13 12 10
36 36 36 37 36 34 34 34 35 34 33 31 30 28 27 26 25 25 25 27 27 28 27 26 26 24 24 24 20 22 17 15 14 11 10 9 9 10 17 12 14 14 14 15 13 11 7
36 37 40 38 38 39 38 35 34 35 35 34 33 31 29 27 25 25 23 25 26 27 28 27 28 28 28 20 21 20 17 15 14 11 10 9 10 12 8 14 13 16 17 16 14 12 11
39 38 39 40 40 40 40 39 37 35 35 35 35 34 32 30 27 25 24 23 24 25 26 26 28 31 32 22 20 19 16 15 14 13 14 13 16 14 14 13 15 16 17 21 12 10 12
38 38 38 39 39 40 40 41 40 39 38 37 35 34 33 31 29 26 25 24 24 24 25 23 26 28 31 24 20 17 19 15 13 14 16 15 14 13 11 16 18 18 20 15 16 13 8
36 36 36 37 38 39 40 40 40 41 40 40 38 37 34 32 30 28 24 23 24 25 25 24 24 23 18 17 12 17 18 16 13 16 16 15 13 13 15 15 24 17 16 14 4 11 14
35 34 34 35 35 35 36 37 38 39 40 42 41 39 37 34 32 29 25 22 22 22 26 24 13 20 7 9 16 15 16 19 18 18 19 16 15 18 19 20 19 17 17 12 9 4 7
35 35 34 34 34 35 35 34 35 37 37 39 41 42 41 37 33 30 27 23 18 25 32 31 25 30 22 14 18 18 20 23 23 23 18 17 26 18 19 17 14 14 16 16 9 4 8
35 36 36 36 36 36 36 37 35 34 33 36 38 40 42 39 33 31 29 24 22 23 33 38 33 30 23 27 23 17 23 24 23 22 23 23 18 17 16 13 13 13 16 11 11 11 11
36 37 38 38 39 39 38 38 38 36 34 32 33 36 39 39 34 33 26 24 22 20 23 31 28 30 31 26 29 22 25 24 23 24 23 25 21 16 15 15 14 17 12 13 9 10 15
40 40 40 42 42 41 39 38 38 38 37 34 33 31 34 35 36 28 20 18 15 11 8 7 12 20 17 36 21 31 28 29 30 25 22 28 23 21 17 15 15 15 8 10 10 13 15
42 42 42 41 41 39 38 38 37 36 35 36 36 32 32 31 32 24 27 24 17 8 12 7 13 16 19 23 35 15 22 35 30 27 27 25 22 21 21 16 16 12 13 12 15 14 14
45 43 40 37 37 37 37 37 37 35 34 31 35 35 34 30 23 26 23 23 14 21 11 18 15 12 15 17 27 29 29 39 40 37 35 28 27 23 18 20 16 16 12 14 9 10 9
44 43 39 37 36 37 38 37 37 36 34 32 29 36 35 32 21 31 29 28 21 26 33 2 10 16 17 16 19 27 31 38 40 33 30 30 23 28 22 21 19 19 18 14 6 3 7
44 43 40 38 35 33 33 31 31 34 34 29 25 32 37 33 24 32 35 37 52 39 16 34 8 13 18 17 19 25 33 36 39 40 32 29 32 22 27 21 23 20 23 22 7 10 11
42 41 40 39 37 35 34 34 32 31 33 27 27 29 34 32 27 29 37 43 56 38 30 26 32 22 14 19 21 22 34 29 37 37 36 33 23 25 26 26 23 25 19 17 20 4 4
41 40 40 39 38 36 35 33 34 33 29 26 26 33 35 25 29 34 42 56 53 40 34 32 29 24 31 26 21 27 29 30 30 34 36 35 27 18 21 25 24 22 27 17 23 19 6
42 43 44 43 42 41 42 42 39 36 29 33 33 41 35 28 39 42 50 52 54 51 38 37 32 30 31 30 30 23 31 30 23 35 36 39 19 22 23 23 21 25 25 21 20 11 13
46 46 47 48 48 48 47 45 39 38 37 41 44 44 33 34 46 51 50 48 51 44 43 36 39 30 25 28 29 20 27 27 27 26 37 35 35 24 23 20 24 26 24 24 24 22 22
50 51 53 54 53 50 47 43 39 46 43 47 49 46 46 40 45 49 53 57 52 48 42 42 33 32 29 32 26 22 17 27 23 27 38 27 36 30 20 26 26 27 25 23 25 22 20
51 52 51 49 47 40 39 40 46 50 50 53 59 47 54 53 59 54 43 43 36 36 43 38 40 35 30 29 28 26 21 20 29 27 26 35 28 36 31 26 26 27 28 29 28 25 25
48 47 48 46 39 45 40 46 52 56 53 59 66 56 58 42 45 49 43 46 41 27 37 49 43 39 33 35 31 27 25 21 21 23 30 35 23 32 33 30 32 24 27 28 27 30 29
44 46 46 46 45 55 56 50 54 56 60 66 72 65 40 59 37 43 55 56 46 37 31 44 49 38 34 29 31 14 29 27 18 14 31 23 21 30 28 31 31 36 32 30 26 26 24
43 43 44 45 46 46 46 48 51 51 66 68 69 67 44 42 52 45 48 47 45 34 38 39 45 46 39 29 29 25 18 24 22 17 22 16 27 25 24 19 23 28 28 25 27 27 26
40 42 42 44 46 47 49 51 54 57 60 70 45 65 68 44 39 45 36 37 38 36 33 39 43 47 42 29 27 32 24 17 31 25 26 17 14 17 21 27 25 25 23 19 20 27 27
44 42 41 41 43 46 48 52 52 55 58 59 67 52 63 63 40 33 34 36 36 37 34 37 35 40 39 43 30 23 10 10 16 14 20 33 12 16 12 16 18 28 31 12 22 33 23
34 36 38 40 41 42 45 51 53 55 55 54 62 40 57 56 53 32 32 36 32 32 31 33 35 39 32 44 37 27 18 21 19 22 16 18 30 24 22 17 18 21 24 23 33 26 21
32 32 34 37 39 47 45 45 51 57 55 56 51 49 58 57 33 39 40 32 36 34 32 37 35 38 49 31 34 20 24 27 24 21 27 24 20 23 18 15 19 11 21 31 29 25 27
25 27 27 31 39 50 44 45 48 53 52 53 52 45 43 48 28 30 41 35 35 38 32 37 43 38 31 30 24 24 14 20 27 28 24 24 27 20 15 16 12 19 25 20 21 20 20

GFSGBSN_700_spd_051.txt.gz
Wind_Speed
33 28 27 31 33 32 31 30 32 32 31 30 29 28 26 25 25 24 24 24 25 25 25 25 24 24 21 22 13 21 14 13 14 12 10 10 13 5 6 18 24 14 15 18 13 16 15
29 33 33 32 29 31 35 35 31 31 32 32 32 30 29 27 26 25 24 23 24 25 27 26 26 27 27 27 18 20 14 13 14 13 12 13 13 5 20 25 18 15 17 18 16 15 15
29 26 31 36 31 28 33 35 33 34 34 33 33 32 31 29 28 26 25 24 24 25 26 27 26 29 28 23 19 22 17 13 15 12 13 14 8 12 20 16 12 14 15 21 18 19 18
35 36 36 36 32 36 34 28 37 36 35 34 36 34 32 31 28 27 26 25 24 24 25 26 26 28 31 20 23 22 19 14 15 13 15 14 13 21 22 18 13 15 15 21 15 19 15
35 36 34 35 36 36 36 35 36 37 36 37 36 36 34 31 30 28 27 25 24 25 26 26 26 27 28 23 21 18 20 18 14 14 14 18 20 20 17 15 17 14 26 22 24 14 9
35 34 33 33 32 31 33 33 35 36 36 37 37 38 36 34 31 29 27 24 23 27 27 28 27 26 18 14 12 14 20 18 16 15 17 17 19 19 17 15 21 14 19 21 7 8 11
35 34 33 32 32 31 31 31 31 32 33 35 36 37 38 36 34 30 27 22 24 27 29 29 22 22 13 16 11 14 13 19 19 18 21 17 18 22 16 15 15 19 24 27 20 17 8
36 35 34 32 32 31 32 31 31 31 30 30 33 34 35 36 33 31 29 23 21 28 38 32 32 32 23 16 23 16 17 24 27 25 22 16 26 18 10 14 21 26 17 14 3 6 10
36 37 36 34 33 32 32 32 32 32 31 29 30 30 30 30 30 30 30 23 21 25 36 39 32 37 26 27 28 22 21 22 28 28 27 25 22 13 12 18 19 17 15 15 13 11 10
39 38 38 37 35 34 34 33 33 33 31 31 29 29 28 25 25 25 26 24 24 23 24 40 32 34 30 30 35 23 26 25 27 29 26 29 24 18 25 17 16 19 13 18 10 10 11
42 41 40 39 37 36 35 36 35 34 31 30 30 30 28 24 19 15 23 24 22 19 6 5 8 5 8 33 27 25 28 30 31 28 22 32 23 24 26 20 15 19 19 15 10 13 14
44 43 43 41 39 37 37 36 35 33 30 28 28 28 31 25 12 12 16 17 14 10 11 6 12 14 13 13 22 13 32 33 28 27 28 30 22 22 20 21 17 16 18 14 11 16 13
41 42 42 42 41 39 38 36 33 31 30 27 26 26 28 26 11 21 22 20 14 15 8 16 12 15 14 16 16 25 25 37 37 30 35 31 33 29 25 23 17 18 13 3 5 3 7
39 38 39 40 41 41 39 36 34 32 30 27 25 24 25 22 21 20 29 27 18 25 29 8 6 19 16 14 19 20 32 31 39 34 19 32 26 30 23 25 20 26 22 9 5 2 5
39 39 39 39 40 41 39 36 33 31 27 23 19 20 24 17 25 25 32 36 29 34 13 30 5 6 20 15 11 21 25 43 32 45 37 24 35 20 23 21 25 18 21 23 9 2 5
41 41 41 41 40 39 38 35 32 29 24 21 23 24 27 16 28 31 34 51 43 29 25 18 18 13 6 13 18 18 21 20 29 33 43 31 19 29 26 26 28 30 22 22 13 5 4
43 43 41 39 37 36 36 35 33 30 25 21 24 28 28 17 26 36 46 55 50 45 29 29 26 23 18 19 16 19 23 24 18 31 36 39 26 30 25 23 35 29 26 25 16 9 6
45 43 39 37 36 35 34 34 32 31 28 27 31 36 29 25 32 42 52 54 47 36 37 36 41 27 24 22 26 16 21 19 15 22 39 41 29 34 41 18 32 34 30 24 22 11 7
43 41 40 38 38 38 37 37 36 34 32 34 38 40 31 29 42 48 51 54 47 31 21 31 45 38 28 26 23 21 22 20 25 22 37 35 33 29 22 24 21 34 30 27 29 26 23
42 41 41 41 40 40 40 40 40 38 35 40 44 42 44 37 44 47 47 52 50 38 42 30 40 37 31 30 31 30 26 17 15 23 31 36 39 31 28 17 23 21 26 28 26 28 22
41 42 43 44 44 45 46 46 47 45 40 47 53 52 52 50 60 48 46 44 41 44 37 32 39 41 38 29 32 29 25 24 20 10 28 28 41 46 29 26 28 29 29 29 32 33 27
43 44 45 46 46 46 45 42 39 41 43 55 62 63 53 53 45 49 48 55 50 38 18 39 38 37 38 34 28 27 28 27 27 15 14 33 29 36 42 32 30 30 28 26 29 29 26
43 42 40 39 39 39 41 39 38 41 49 59 64 67 43 48 40 41 59 58 53 37 29 22 26 31 46 44 29 29 32 34 27 27 21 20 35 25 32 34 31 36 36 29 34 27 30
37 37 38 39 40 40 41 39 43 48 57 58 66 66 60 43 48 62 54 50 52 40 37 28 24 28 39 35 26 28 28 29 28 34 33 18 27 37 24 21 14 24 23 26 23 32 26
35 37 38 39 40 41 40 42 52 54 57 63 59 53 70 63 46 46 54 53 35 43 35 31 31 30 26 34 31 25 26 31 34 33 30 20 22 18 23 31 22 40 26 16 21 26 21
35 36 37 38 38 38 40 42 48 63 55 58 59 60 54 64 58 53 42 42 35 31 37 42 32 30 25 33 30 35 14 18 13 17 29 33 12 24 12 15 15 28 29 22 16 30 22
33 33 34 38 42 42 40 42 45 52 52 55 62 61 46 36 64 44 40 35 33 34 33 29 34 24 31 30 40 34 33 17 15 8 10 28 25 23 7 4 15 13 25 30 27 31 19
30 32 33 34 36 39 41 45 45 47 51 56 54 54 59 25 41 54 36 35 26 33 34 31 30 28 37 38 33 33 36 36 28 33 38 20 18 18 28 7 11 6 14 24 39 28 30
30 33 36 37 37 37 40 42 44 48 50 54 52 51 40 50 25 47 46 31 31 32 35 34 30 23 40 36 42 32 30 26 36 28 31 27 24 24 21 26 17 18 27 13 14 23 16

GFSGBSN_700_spd_054.txt.gz
Wind_Speed
24 24 27 26 39 37 36 32 27 27 27 28 29 28 27 25 25 23 23 23 23 24 27 26 27 25 24 23 13 19 16 15 14 13 12 13 13 13 15 12 15 19 19 15 10 12 19
32 30 28 28 21 24 29 33 37 29 29 29 28 28 29 27 27 24 24 23 23 23 26 27 27 26 27 28 18 22 21 18 17 15 13 16 11 12 17 17 17 20 20 14 9 17 17
32 33 35 33 29 28 29 24 26 25 28 33 30 29 29 28 28 27 25 24 24 25 25 27 27 27 30 23 19 22 20 15 18 14 13 13 12 18 16 18 15 18 19 19 19 19 19
31 30 32 33 33 32 31 31 32 27 26 25 30 33 29 30 28 28 27 25 24 26 26 28 29 29 31 22 21 25 21 18 19 18 12 15 17 22 19 20 18 15 16 19 6 11 22
32 31 32 31 31 33 32 33 30 30 32 31 31 32 33 29 30 30 27 25 24 28 26 29 30 28 30 23 21 21 24 19 17 19 16 22 22 18 19 17 16 17 21 13 17 19 12
33 32 32 32 31 31 31 30 33 29 29 30 32 33 31 31 31 31 29 26 25 28 30 31 32 27 25 21 12 18 24 24 22 19 20 27 22 23 22 17 18 12 13 15 21 14 9
33 33 33 33 32 31 31 30 29 28 28 29 30 29 30 31 29 30 29 27 28 30 35 33 25 20 17 18 15 19 14 23 24 25 26 22 26 32 21 17 18 15 17 21 19 12 16
35 35 34 35 33 31 31 31 30 28 27 27 27 27 27 25 25 26 27 25 29 33 38 34 35 35 28 22 25 20 22 23 28 30 25 20 30 25 15 13 14 16 22 24 11 2 9
37 36 36 36 36 34 32 31 31 29 27 27 27 27 26 23 20 21 21 23 27 31 36 38 32 36 29 32 35 26 24 25 29 30 30 30 24 18 17 15 16 16 23 18 19 13 15
38 38 38 38 38 37 35 33 31 30 29 27 27 27 26 23 19 16 15 19 26 26 22 42 38 29 32 34 41 27 28 28 27 33 31 25 24 21 16 20 17 24 16 18 15 11 6
39 39 40 41 40 39 36 35 33 30 28 27 26 26 25 21 16 13 14 18 21 17 5 8 6 7 8 26 30 35 32 31 31 33 32 35 23 24 24 22 14 20 16 15 18 12 11
39 40 41 41 42 40 38 36 34 31 28 26 25 25 23 17 16 15 15 17 16 9 10 7 9 10 11 10 23 14 36 34 30 31 27 30 25 18 19 20 20 17 17 14 17 11 7
40 41 41 40 40 39 36 35 34 31 26 24 23 23 22 16 15 20 16 20 14 13 6 13 11 16 12 9 20 17 26 45 36 26 32 31 33 27 23 22 22 20 20 3 3 2 7
41 41 40 38 38 37 34 32 33 31 25 23 23 23 20 15 22 23 26 25 18 13 27 4 11 16 19 12 12 25 17 41 41 29 16 26 17 33 25 27 26 18 19 13 5 3 4
38 38 37 36 36 35 34 32 31 30 24 22 21 23 20 16 25 28 32 36 20 22 1 21 10 6 22 14 8 17 32 32 40 41 22 13 22 22 31 24 19 19 21 23 17 5 1
37 35 36 37 37 36 35 33 31 28 25 22 25 26 21 17 26 34 42 45 31 15 24 12 7 4 6 13 13 13 15 22 38 41 35 31 15 15 27 23 28 27 25 14 11 5 3
38 37 37 38 38 36 36 34 31 28 25 25 28 29 23 23 23 38 52 46 39 28 19 20 10 12 10 6 3 8 4 20 11 22 34 34 35 29 17 32 25 24 31 21 17 18 6
40 39 38 37 38 37 37 34 32 29 27 30 31 35 31 28 30 40 53 50 40 28 29 35 35 22 19 14 16 12 9 6 4 12 30 34 21 41 42 25 22 13 28 34 24 10 15
40 39 39 39 38 36 35 34 34 32 31 35 35 38 32 31 40 43 43 44 41 23 37 25 39 35 34 21 9 4 8 12 12 7 5 20 28 23 26 37 33 31 27 39 33 29 29
42 43 42 39 36 35 36 35 36 37 36 37 39 38 38 43 45 43 43 45 37 41 35 27 36 38 38 40 25 16 20 15 17 15 13 22 35 36 29 23 20 25 22 38 38 26 26
44 41 39 38 37 36 37 38 39 40 41 41 44 44 47 41 55 49 42 37 41 42 40 35 42 38 27 35 40 42 28 24 21 22 17 13 25 36 38 41 36 23 20 32 39 35 30
38 37 37 37 38 39 39 41 43 44 42 46 50 56 45 52 37 38 49 53 47 23 26 30 39 34 30 37 36 26 21 17 18 23 20 10 15 27 30 37 34 30 34 30 33 32 33
37 37 37 37 38 39 41 43 44 46 48 50 54 57 49 45 50 41 59 48 35 35 30 19 17 17 31 33 28 34 25 24 23 25 23 30 16 12 33 28 37 35 45 33 31 29 23
37 37 37 37 38 39 39 41 45 45 47 54 60 58 57 54 54 66 46 37 42 38 33 29 22 20 17 11 14 24 24 19 24 27 21 21 25 23 16 25 12 45 41 40 31 36 31
31 31 31 32 33 35 37 38 41 42 45 54 59 62 63 60 57 51 52 47 38 35 36 37 29 19 13 12 14 17 28 25 25 27 28 22 24 17 9 23 18 29 14 27 30 26 26
29 31 32 32 33 33 35 37 41 49 51 50 55 60 60 63 70 58 49 42 43 41 36 36 26 21 23 14 15 24 15 25 10 15 20 21 24 26 33 12 16 38 30 25 16 27 21
29 31 32 33 34 36 37 38 40 42 51 53 54 59 56 49 63 57 61 52 36 31 31 26 22 26 28 27 25 25 30 22 20 23 19 19 20 29 33 16 21 19 18 27 24 30 23
27 27 28 30 31 32 35 36 39 43 48 55 52 60 62 60 41 38 58 53 54 40 33 27 21 26 34 33 34 27 22 29 26 25 19 18 10 4 23 15 12 9 13 21 25 26 26
25 27 27 29 31 32 33 37 39 37 48 54 49 49 46 51 38 33 39 49 43 42 38 31 27 25 35 24 35 23 29 18 37 31 29 32 34 18 15 15 11 14 19 19 14 11 17

GFSGBSN_700_spd_057.txt.gz
Wind_Speed
29 29 29 27 26 25 24 21 24 38 43 39 36 36 33 29 28 26 25 25 23 24 24 26 25 25 23 25 18 19 16 15 16 15 15 16 16 14 16 16 15 15 15 12 14 12 15
31 32 31 32 31 31 30 29 29 22 21 36 45 38 38 28 27 27 26 26 25 25 25 27 26 26 25 26 18 22 25 21 19 18 18 17 13 14 16 20 20 19 18 17 13 14 16
28 29 30 32 33 33 36 35 37 36 32 27 23 42 37 32 24 26 26 27 26 27 27 29 27 27 28 19 19 22 22 25 22 18 18 15 16 15 19 21 23 19 21 20 18 19 21
29 30 31 31 31 32 33 33 34 32 30 31 31 25 23 35 22 26 27 28 27 28 29 30 29 30 31 20 19 20 24 23 20 19 15 17 20 21 23 21 19 17 18 17 8 11 15
32 31 32 32 32 32 33 32 32 33 33 30 28 31 24 25 27 23 26 28 27 28 30 32 31 30 30 26 21 24 26 24 22 22 17 19 24 25 22 20 18 16 18 17 14 12 14
33 33 33 33 33 33 33 33 31 32 32 32 30 29 27 24 30 27 28 28 29 33 32 33 34 28 27 16 12 19 25 26 27 23 20 26 29 27 26 23 21 12 17 13 13 12 15
33 34 34 34 34 33 33 33 33 31 30 30 31 29 29 24 29 28 25 30 33 35 37 33 28 27 26 26 19 25 20 22 29 28 26 28 33 38 31 22 21 16 14 12 8 10 18
35 36 35 35 35 35 34 34 33 32 30 29 29 28 27 26 26 22 27 24 30 36 37 35 35 36 28 28 22 20 25 23 28 34 28 30 39 35 28 22 21 20 17 15 12 7 11
35 36 36 36 36 35 35 35 34 33 31 28 28 28 25 23 21 19 20 23 26 28 34 35 35 35 28 34 36 28 25 27 26 31 34 37 29 31 29 24 23 21 20 14 15 13 17
37 36 36 36 36 37 37 37 36 35 32 30 28 27 25 22 20 17 18 18 19 20 19 36 36 31 32 32 40 30 32 29 28 31 33 32 35 10 12 25 23 21 15 14 18 19 11
38 38 37 35 37 37 37 37 36 35 33 32 29 27 23 21 19 15 18 16 9 10 6 7 11 15 13 16 25 34 37 35 32 30 33 35 28 34 31 24 21 20 10 16 13 19 14
39 39 38 38 37 37 36 37 36 35 33 32 30 26 22 19 17 17 17 14 10 8 10 6 6 10 14 9 17 16 33 39 31 30 24 32 18 13 21 23 21 15 19 21 19 15 8
41 40 40 40 39 38 38 37 36 33 32 32 29 24 20 19 16 18 18 17 13 12 4 5 4 12 10 8 16 16 23 44 38 28 34 31 30 29 20 20 25 16 19 5 4 2 6
42 42 41 42 41 40 38 37 33 31 29 29 26 20 19 18 19 20 23 26 19 8 23 4 2 11 15 9 10 21 15 40 43 25 13 30 17 34 35 32 25 22 22 14 6 4 6
41 42 41 40 40 38 35 33 30 26 25 26 21 22 20 18 18 25 30 36 16 21 2 19 6 2 15 14 7 19 19 23 42 41 18 13 20 14 27 30 29 27 28 20 24 3 2
40 39 38 36 35 34 34 32 29 27 24 22 22 25 23 20 22 28 35 38 28 12 20 9 3 2 1 10 10 8 11 15 23 36 35 18 6 13 20 16 29 28 17 13 10 5 4
37 36 34 33 33 34 33 32 29 27 22 21 24 31 29 25 27 32 42 35 34 17 11 14 7 7 3 1 3 8 5 3 7 23 31 37 30 23 15 17 25 26 29 27 20 19 6
34 33 33 33 33 33 32 31 28 25 21 26 31 35 38 30 35 39 43 41 37 30 24 22 19 15 8 8 6 5 10 5 4 7 12 26 18 34 43 33 17 25 26 27 25 7 12
34 35 35 35 35 33 31 30 29 27 29 31 36 36 37 35 43 45 31 37 41 40 35 35 21 15 22 26 10 7 15 10 6 4 6 1 12 28 27 25 28 36 24 22 21 26 32
37 38 36 36 35 33 33 32 31 30 36 38 37 35 37 40 44 44 38 30 25 36 39 32 30 27 26 28 28 18 11 10 3 9 8 10 10 20 23 18 11 21 26 31 28 32 27
39 38 39 38 37 37 36 34 31 32 41 40 45 36 42 41 50 44 36 39 34 30 30 33 34 31 33 27 19 22 27 35 26 13 15 12 9 12 20 31 30 29 21 24 26 32 35
41 41 38 35 34 34 34 34 35 36 38 48 48 50 34 51 33 44 44 42 32 25 31 30 34 30 26 33 30 31 13 12 29 23 13 14 18 17 16 20 27 32 37 42 38 32 32
39 36 34 33 33 34 34 36 37 39 42 52 54 52 44 32 42 47 48 44 33 31 31 27 19 17 19 25 23 20 19 21 24 23 22 16 13 19 8 8 10 28 41 40 41 38 30
33 33 33 33 33 33 35 37 40 43 50 53 57 54 49 43 48 46 40 37 38 38 31 22 20 17 8 5 7 14 16 19 20 23 24 16 13 13 9 16 4 24 14 24 41 43 38
30 30 30 32 34 35 35 36 39 44 50 54 53 56 57 53 43 45 43 35 25 23 27 23 19 11 15 12 12 11 15 19 28 26 28 20 14 8 6 13 22 27 11 14 21 35 44
27 28 29 30 31 31 34 37 40 41 43 50 55 55 56 54 58 44 39 40 41 31 25 24 15 11 21 21 17 11 7 6 5 9 25 17 19 19 11 3 7 23 13 20 27 33 26
26 27 29 30 31 32 35 37 38 40 40 43 49 52 55 54 57 39 48 47 38 33 26 14 12 18 22 28 25 22 20 11 8 8 9 16 16 19 18 10 16 24 25 26 22 42 20
27 28 29 30 31 32 34 35 37 39 45 45 52 49 53 55 35 21 42 47 36 37 36 23 12 15 15 30 23 20 14 12 22 19 15 16 8 12 11 9 13 13 18 16 12 15 37
29 28 28 29 29 29 32 34 36 39 38 42 50 51 49 47 40 45 38 34 38 39 34 33 32 25 15 21 33 16 23 15 17 17 21 20 22 14 15 15 19 24 28 34 17 9 12

GFSGBSN_700_spd_060.txt.gz
Wind_Speed
27 28 28 29 30 30 30 30 29 28 26 27 26 24 33 38 37 39 39 35 32 31 28 28 28 24 23 23 17 16 12 11 14 14 12 14 17 16 19 18 19 21 24 20 17 15 16
26 26 27 28 30 31 32 33 34 33 32 31 31 32 30 26 40 41 40 41 36 30 29 30 30 26 25 23 19 17 25 22 18 17 18 17 18 15 19 18 20 20 22 24 22 21 18
28 28 28 29 31 31 31 32 32 33 34 34 32 30 31 32 27 37 44 44 44 31 30 31 32 30 30 18 18 17 21 23 24 22 21 19 20 21 20 21 20 22 24 26 25 27 22
30 30 30 31 31 32 32 32 33 33 33 34 35 34 33 31 33 29 40 41 40 35 31 30 33 34 34 24 16 19 24 23 20 20 20 20 22 23 25 20 20 18 19 23 10 11 16
32 31 32 33 33 33 32 33 33 33 33 33 34 33 33 30 26 28 20 32 39 38 27 30 34 33 33 29 22 26 24 23 22 21 20 21 23 24 25 23 21 22 23 19 12 8 11
33 34 33 34 34 33 33 34 33 33 33 32 32 32 31 31 29 26 24 28 28 34 30 31 36 31 26 13 10 21 26 29 25 27 25 26 25 28 29 27 26 19 19 19 15 11 13
35 35 34 35 35 34 34 33 32 33 33 32 31 31 29 28 29 27 25 28 31 30 34 31 29 23 19 18 15 21 16 22 25 31 33 30 31 37 34 32 27 17 11 13 12 12 15
38 38 37 37 37 36 35 34 33 33 32 31 31 31 29 27 27 26 26 25 31 30 35 34 38 40 25 28 30 19 22 26 22 33 34 32 41 33 29 28 25 23 21 19 15 10 15
40 40 38 38 37 36 35 34 34 33 33 31 30 29 29 28 24 23 25 24 25 28 33 32 32 36 30 33 35 27 24 26 27 29 36 39 26 33 33 31 29 26 23 19 14 13 18
41 40 38 38 38 36 35 35 34 33 32 31 30 29 27 27 25 21 23 21 20 18 21 31 30 28 31 35 40 27 34 29 29 27 31 35 38 22 18 35 32 30 21 17 15 18 16
41 39 38 38 37 36 36 35 34 34 33 32 31 28 26 27 24 21 20 18 11 10 6 10 6 12 17 21 20 23 31 39 35 29 29 27 29 34 20 22 29 32 19 18 15 19 22
41 40 39 38 38 37 36 35 36 35 33 31 30 28 27 25 22 20 19 14 7 6 9 4 6 7 12 11 15 18 30 44 39 29 22 28 16 15 32 30 22 18 18 14 17 17 5
42 41 40 38 38 38 37 37 36 36 34 31 29 28 27 25 21 20 17 15 9 11 5 2 1 8 12 12 15 14 20 44 41 31 29 28 28 19 18 15 20 23 17 2 2 3 6
42 42 40 38 37 37 37 36 37 36 32 29 28 28 26 25 22 21 19 21 15 4 23 10 11 9 11 11 9 13 9 34 37 26 23 27 9 32 30 25 17 25 24 9 6 3 4
41 41 39 39 38 37 37 35 35 34 31 24 25 26 27 24 22 20 23 26 12 19 7 11 14 10 4 5 3 15 7 17 40 31 17 20 17 15 20 32 29 22 19 23 17 3 2
41 40 40 39 38 37 37 34 32 31 24 21 23 23 24 24 22 22 27 30 26 11 18 16 6 5 6 2 5 6 11 6 17 40 33 16 4 6 17 15 28 32 20 14 11 5 4
41 40 39 38 37 36 33 31 28 24 21 21 24 27 23 26 24 30 37 32 29 23 7 14 10 7 2 3 4 6 7 14 9 6 33 28 16 7 12 15 19 26 29 23 12 9 5
41 39 37 35 33 31 29 29 26 23 20 22 27 30 26 25 30 34 40 33 33 26 23 25 20 16 11 6 3 3 7 8 11 8 12 23 12 24 32 20 13 9 24 32 23 7 9
39 37 34 32 31 30 30 30 28 26 23 22 30 32 30 31 35 40 32 36 34 33 31 30 17 12 12 12 6 6 3 7 5 12 9 3 8 19 9 17 17 20 29 19 19 24 28
39 34 33 32 32 33 33 31 30 25 24 30 34 31 38 45 40 32 38 36 35 33 37 35 33 24 21 22 20 15 10 8 10 1 7 4 6 8 5 7 11 11 18 29 29 26 19
35 35 35 35 36 36 34 31 30 27 27 35 44 37 35 37 40 35 36 36 33 31 25 26 40 37 30 26 17 14 18 19 19 14 12 7 10 8 3 8 17 24 26 19 32 33 31
37 37 38 38 38 37 37 34 32 31 32 41 46 48 46 41 36 39 35 39 36 29 27 23 26 25 15 22 24 20 14 15 13 13 13 10 6 10 16 13 11 18 23 28 30 34 36
39 40 40 41 42 40 35 34 33 35 38 45 47 51 42 38 39 34 40 39 36 31 27 23 17 14 15 11 18 26 23 21 18 16 14 11 7 6 3 11 16 11 3 12 24 33 38
43 44 44 43 39 36 36 36 38 39 42 47 49 49 47 36 40 35 36 38 37 28 24 17 13 16 3 7 8 11 16 23 23 21 20 12 9 6 5 7 2 7 3 10 14 14 22
38 38 37 36 35 34 34 36 38 41 43 48 48 46 54 51 35 27 33 29 23 25 27 20 18 15 14 13 11 6 8 17 23 23 24 23 19 11 5 9 15 24 19 18 21 26 20
26 28 29 29 27 27 29 33 37 40 43 46 52 47 48 51 49 43 29 30 32 31 21 21 9 13 16 14 15 7 4 2 3 3 11 21 22 18 10 4 4 1 10 14 21 39 29
23 25 26 27 29 30 32 30 33 38 41 45 50 55 46 49 53 44 48 38 34 30 29 23 14 16 17 21 17 9 11 6 3 1 3 22 23 23 17 10 13 16 17 18 13 25 21
25 25 25 25 26 28 30 33 33 35 36 40 47 52 57 48 33 43 40 36 42 38 31 21 18 19 17 23 17 15 9 7 9 14 4 10 11 15 18 9 14 19 13 11 16 23 24
25 27 28 30 29 28 28 30 34 37 36 38 43 42 45 51 35 30 28 34 36 30 23 27 22 11 16 12 16 10 14 9 8 5 8 17 19 9 11 15 17 16 18 24 31 30 27

GFSGBSN_700_spd_063.txt.gz
Wind_Speed
26 25 26 27 27 27 27 27 28 29 29 30 29 29 27 26 25 27 26 32 39 37 35 36 35 31 29 26 19 18 11 9 14 17 17 18 20 19 19 20 22 25 20 23 22 21 20
27 25 26 26 25 25 26 26 27 27 28 29 30 31 31 31 27 28 31 32 28 40 37 39 38 34 32 28 21 18 21 20 15 17 17 17 18 18 18 21 22 21 23 23 27 25 24
28 28 28 27 27 27 27 27 28 28 29 29 30 30 31 31 33 32 30 30 32 31 42 39 42 40 38 27 22 16 23 27 27 23 22 19 20 21 21 20 20 20 25 24 26 24 26
31 30 30 29 29 29 29 29 30 30 30 31 31 31 30 31 33 34 34 30 30 32 30 37 38 46 46 29 28 21 26 22 25 31 30 26 24 24 24 23 18 18 20 22 20 16 14
33 32 31 30 30 30 30 29 31 31 31 31 31 31 30 31 32 32 32 31 31 30 27 26 37 38 44 29 28 25 25 24 27 24 27 29 29 26 27 25 20 21 19 20 17 11 10
33 34 32 30 30 31 30 29 31 32 32 32 31 31 29 29 31 30 31 31 29 30 28 24 29 37 32 13 22 20 25 30 28 28 27 29 30 29 31 31 25 23 21 21 20 9 10
34 33 34 33 32 33 32 31 31 31 31 31 31 30 28 28 28 29 30 30 28 30 30 24 26 27 24 18 29 20 17 20 26 31 34 34 33 40 35 31 28 16 13 12 12 12 15
36 36 36 35 34 35 34 32 31 31 31 31 30 30 28 27 25 25 27 29 30 33 36 27 26 30 25 27 27 25 20 24 22 30 36 34 43 36 28 28 30 25 22 21 18 17 15
38 37 37 37 36 36 35 33 32 32 31 31 30 31 29 27 24 23 25 25 27 29 34 32 31 32 24 34 36 29 24 19 23 27 35 42 33 28 32 31 30 28 25 22 18 15 17
38 37 37 37 37 36 35 33 32 32 32 32 31 29 29 28 23 21 22 23 22 21 21 21 12 8 17 31 38 26 36 29 26 28 27 34 39 19 27 36 30 30 23 20 19 16 8
38 38 38 38 36 35 35 33 32 32 32 31 29 28 29 29 23 18 20 19 17 13 6 11 8 9 8 12 14 18 29 37 38 29 25 24 30 33 19 22 27 29 25 18 18 17 14
38 39 39 38 36 36 35 33 32 33 32 30 28 27 29 28 24 19 17 15 10 3 7 4 7 8 10 10 12 11 26 37 38 31 30 24 21 20 36 36 25 18 19 9 11 12 7
39 39 39 38 37 36 34 34 32 32 32 30 28 28 29 28 23 19 16 11 6 7 5 5 4 13 15 12 9 15 13 39 27 29 26 25 23 16 20 25 20 19 12 4 5 5 6
39 38 38 38 36 34 33 33 31 31 32 29 27 31 29 27 21 18 14 11 11 5 12 18 20 20 13 7 7 13 8 23 34 27 25 22 14 28 22 25 31 37 28 10 8 6 4
39 38 38 37 36 34 32 31 30 30 30 26 26 29 31 22 21 15 15 18 10 17 10 11 11 11 4 1 6 11 6 11 31 27 17 23 19 13 30 27 18 21 24 28 8 4 1
39 37 36 36 36 35 33 33 31 28 25 19 24 27 27 18 18 20 24 28 21 14 12 23 11 7 8 4 1 7 7 8 13 30 24 14 5 18 17 28 30 17 22 14 13 7 8
38 37 35 34 35 35 33 32 30 24 18 15 21 22 23 18 22 27 30 26 25 26 11 13 10 10 6 8 9 4 6 7 6 13 30 18 9 6 18 20 25 27 26 17 15 19 8
36 36 34 35 35 34 32 29 27 20 17 22 21 24 22 18 25 30 33 30 28 25 29 21 18 13 12 10 7 2 3 10 11 6 16 27 6 13 12 10 12 22 26 31 17 7 10
33 34 35 35 34 32 30 27 24 20 21 20 24 25 21 22 28 31 29 23 27 27 25 23 20 12 8 6 3 5 2 3 6 13 8 8 14 8 6 22 20 18 21 16 22 25 24
35 36 35 34 33 31 28 26 25 22 22 24 25 26 25 29 31 32 27 30 23 27 27 27 24 17 17 16 15 10 13 10 6 9 6 3 6 11 9 3 7 10 18 20 23 20 17
32 33 33 33 31 30 27 27 27 25 22 28 32 33 29 16 32 37 33 30 30 29 26 25 28 34 23 22 19 26 25 21 14 16 6 2 0 7 9 4 5 7 15 16 17 23 26
31 31 33 33 32 32 31 30 30 27 28 36 37 39 34 38 19 24 39 29 32 27 23 20 19 9 16 24 28 20 17 16 10 7 14 8 2 3 6 8 11 12 8 14 19 18 21
31 31 32 33 34 34 34 33 32 29 33 40 42 41 37 38 40 27 33 31 24 25 25 23 18 14 16 15 17 20 19 19 16 13 11 11 10 4 4 4 10 6 5 5 3 6 8
30 33 35 36 37 38 38 36 34 33 38 40 44 43 42 45 37 34 29 24 23 25 23 20 15 15 16 10 14 13 14 18 23 22 18 12 10 13 7 8 2 6 8 2 4 5 11
29 31 32 35 39 40 40 39 36 37 40 46 47 46 47 45 44 32 27 33 20 27 26 22 20 15 9 8 7 4 6 8 13 17 21 20 16 6 5 13 13 10 8 11 12 15 23
26 26 26 29 32 34 35 37 38 39 41 44 46 46 38 38 50 43 24 21 27 30 23 18 15 10 12 11 7 4 3 1 1 3 8 21 20 16 9 3 6 9 8 5 9 16 14
27 26 24 24 23 24 29 33 34 35 37 42 46 46 46 39 32 37 48 36 24 24 20 18 16 11 12 14 10 8 6 2 2 0 2 15 17 23 12 8 10 13 11 15 8 10 9
19 19 20 22 21 24 26 27 28 31 34 40 44 46 45 45 40 35 38 46 43 38 28 22 16 19 15 17 14 11 8 9 8 9 4 7 14 13 16 8 7 6 9 6 11 12 19
24 22 23 23 23 22 25 29 30 32 32 36 42 45 43 45 15 32 28 38 42 37 24 31 23 10 14 12 14 8 12 9 10 5 11 9 12 12 11 7 5 6 9 14 19 26 30

GFSGBSN_700_spd_066.txt.gz
Wind_Speed
25 24 23 24 24 23 23 24 25 25 24 24 24 24 25 26 27 28 28 27 27 27 25 27 31 38 33 32 28 22 13 14 15 21 25 25 26 23 22 19 20 27 22 18 19 21 25
27 25 25 26 26 25 24 25 26 25 24 24 24 24 25 26 27 28 28 29 30 31 27 26 32 33 38 40 25 25 23 19 16 18 22 24 23 20 16 21 22 15 22 21 20 22 22
27 27 28 29 28 27 27 27 28 26 25 25 25 26 26 26 27 27 27 28 29 32 31 30 31 32 39 42 29 27 22 30 24 23 23 23 23 21 18 17 23 23 21 19 21 21 20
28 29 29 28 30 28 28 28 28 27 26 26 25 25 26 28 29 29 28 29 31 30 27 29 30 31 41 34 37 35 27 25 30 31 27 25 24 24 23 18 17 18 19 21 16 16 19
30 31 31 31 29 28 28 27 27 27 27 27 25 25 26 28 29 29 29 29 31 30 28 28 28 28 37 23 33 36 40 29 27 32 37 35 32 29 23 20 18 18 23 18 16 12 12
31 31 32 32 32 29 28 29 29 29 28 27 25 25 26 27 27 28 30 29 31 32 27 26 26 25 21 18 11 21 40 23 29 28 31 32 35 28 27 27 31 23 20 20 17 12 14
33 33 33 32 33 32 30 30 30 30 29 29 26 25 25 25 26 27 28 28 29 34 25 24 26 30 23 18 16 26 36 20 19 28 30 34 29 37 35 32 26 20 18 17 13 13 16
36 34 34 34 33 33 32 31 30 29 30 29 27 25 25 25 24 26 27 28 28 31 37 24 26 31 28 24 23 23 31 25 19 24 26 25 38 32 23 25 26 25 20 18 13 13 16
36 36 34 33 33 33 31 31 30 29 29 28 27 26 26 24 22 24 25 25 25 27 32 21 13 12 19 31 27 24 33 30 14 19 26 36 21 30 25 24 24 29 25 21 17 8 13
37 36 36 35 33 32 31 30 29 29 28 28 27 25 26 23 22 20 22 22 21 21 18 9 12 9 12 8 29 30 35 34 22 16 21 26 32 16 24 31 26 28 24 23 18 12 15
39 37 36 35 34 32 31 30 29 29 27 27 26 24 25 24 21 18 19 19 15 14 6 8 8 8 13 6 7 16 29 36 31 20 13 19 17 32 28 28 25 28 17 17 18 16 15
41 39 36 35 33 31 31 30 29 28 27 27 25 24 25 24 22 20 18 15 9 3 6 3 5 6 15 18 7 9 11 26 25 33 27 19 15 17 26 23 22 9 13 10 13 15 16
44 41 37 36 34 32 31 30 28 28 28 27 25 25 25 23 21 20 15 11 3 7 5 3 5 9 17 11 9 16 11 27 24 27 32 26 24 16 19 27 20 19 16 8 10 10 12
45 43 39 37 35 32 30 30 27 27 27 26 25 25 25 22 20 19 16 10 11 5 10 11 16 20 12 9 6 12 12 17 35 25 15 26 21 26 21 22 21 33 31 12 10 10 9
41 43 41 38 35 32 28 28 26 26 25 24 25 24 24 19 18 17 12 14 8 12 10 11 12 9 4 4 5 5 11 10 19 30 26 25 27 13 23 21 21 23 31 21 9 2 5
35 36 38 37 34 31 30 28 27 25 23 22 23 24 21 17 15 15 19 23 17 15 9 14 10 6 5 7 4 7 6 6 6 24 22 11 16 25 25 22 22 18 16 18 19 13 10
36 32 29 30 32 31 27 22 22 22 20 21 20 21 16 14 17 22 29 21 22 21 14 12 7 8 9 8 7 4 6 2 5 10 26 15 13 5 21 28 27 24 16 16 16 22 11
39 38 34 32 27 29 28 21 20 20 18 20 15 20 14 14 23 27 31 24 21 19 19 22 17 11 10 9 7 5 4 2 3 11 20 21 12 10 19 12 24 25 28 26 17 13 16
33 33 29 25 23 26 27 24 21 20 19 16 23 20 18 16 23 28 26 24 30 16 17 16 20 13 10 8 5 6 10 4 4 9 8 14 13 17 14 9 9 16 20 19 27 22 18
34 32 29 31 29 29 28 23 23 22 22 23 21 16 18 25 28 23 21 24 20 25 21 20 19 20 17 16 12 8 9 11 19 15 7 4 13 20 13 13 14 12 14 17 17 21 21
34 34 32 33 31 28 27 22 24 24 24 28 29 25 18 13 30 29 25 18 18 23 19 17 19 23 22 19 18 20 21 18 15 15 10 3 5 5 10 6 5 6 7 13 19 20 19
33 33 31 27 26 26 29 26 28 27 27 33 34 31 26 21 23 15 27 34 27 25 20 20 19 16 16 25 26 21 14 11 9 9 9 8 3 1 4 6 7 8 7 8 13 13 10
24 24 24 27 30 29 28 28 29 30 32 36 35 30 26 23 26 25 20 18 26 23 21 19 16 20 16 13 16 17 19 19 17 13 10 9 8 2 2 1 2 8 17 9 7 6 7
27 25 25 25 25 27 28 30 32 32 36 34 32 27 34 35 22 24 21 25 21 25 20 14 16 19 15 18 17 17 16 16 19 19 17 9 10 9 3 4 3 3 13 12 9 10 7
22 21 20 21 23 25 29 31 33 34 34 37 33 34 35 35 30 27 24 21 18 14 18 17 19 16 11 12 8 6 8 9 13 16 21 19 11 5 7 9 8 5 6 5 4 4 6
24 20 22 22 22 25 29 32 36 36 36 39 39 36 32 26 33 24 23 24 20 18 19 21 19 16 12 11 7 6 6 4 5 5 15 17 19 11 4 6 6 5 13 12 7 4 6
26 26 25 24 25 25 25 31 34 38 38 40 41 39 39 43 34 22 29 24 20 20 16 19 22 19 14 11 9 8 6 4 4 5 12 18 17 21 18 10 8 8 9 6 8 6 7
23 24 24 23 23 25 25 26 32 33 38 40 39 39 42 45 41 23 18 23 23 32 24 19 11 14 12 13 9 6 6 8 5 5 9 12 14 14 17 11 8 10 15 10 9 10 12
19 19 19 20 20 21 22 23 23 31 38 39 44 42 39 43 36 42 34 25 22 23 24 24 24 14 10 12 11 7 9 7 8 6 12 7 9 9 11 13 5 7 8 8 12 17 20

GFSGBSN_700_spd_069.txt.gz
Wind_Speed
25 23 23 23 24 23 22 22 23 24 24 24 23 24 26 27 26 24 23 24 25 27 27 28 28 29 26 25 28 30 25 19 19 22 25 28 27 27 29 24 25 27 27 25 21 24 23
28 27 25 24 24 24 24 23 25 25 26 26 26 26 27 27 26 25 24 24 26 26 28 29 29 30 32 32 25 21 32 29 23 19 20 21 23 23 23 26 25 25 26 27 25 25 22
27 28 29 28 26 26 24 24 25 27 27 26 25 26 27 26 26 25 25 24 26 26 27 28 28 31 35 26 27 25 32 31 31 27 18 17 21 20 24 24 22 26 28 26 22 26 27
28 28 28 29 29 27 27 27 26 26 28 27 25 25 26 26 25 24 23 23 25 26 26 26 27 31 38 28 23 25 33 30 28 35 29 23 20 25 24 18 21 18 26 27 23 23 23
29 29 28 28 29 30 27 28 27 28 28 26 26 26 26 24 24 25 22 22 23 24 24 23 27 27 33 22 21 21 24 36 35 37 31 28 21 23 22 24 22 24 25 26 21 19 17
31 31 31 29 30 31 30 30 29 29 28 28 27 26 26 25 24 24 22 22 23 26 23 21 23 20 11 12 16 14 13 25 28 39 29 29 26 25 28 29 32 26 25 24 23 16 18
34 34 33 32 31 31 32 31 30 31 30 28 27 28 26 24 23 24 23 21 24 26 19 20 20 31 18 21 26 19 19 19 27 35 36 26 31 38 33 32 28 25 20 20 16 16 18
35 35 35 35 33 33 31 31 31 29 29 29 26 26 26 23 23 23 22 22 19 24 33 19 18 22 21 24 29 18 21 19 26 38 22 27 40 34 29 29 29 30 29 24 19 15 14
37 37 35 35 35 34 32 30 29 28 27 27 26 25 25 22 22 21 19 18 20 23 29 8 8 5 9 13 18 22 20 15 22 29 27 33 30 28 28 29 31 31 31 27 22 13 16
40 39 37 36 35 34 33 31 29 27 26 26 25 25 25 21 22 17 17 15 15 18 15 5 6 5 10 11 10 10 22 21 23 22 20 27 32 16 27 33 29 31 27 24 22 20 21
43 43 41 38 37 36 34 31 29 27 26 25 24 24 25 20 20 15 16 12 9 12 7 4 4 6 7 8 9 9 21 23 20 24 12 14 20 27 31 29 30 31 20 21 22 23 21
38 40 43 40 39 36 34 33 30 28 26 26 24 25 24 22 18 16 13 8 3 3 8 2 3 4 8 14 12 8 12 17 17 23 32 25 22 18 24 30 25 19 24 21 19 20 20
34 35 37 40 39 37 35 33 31 29 26 26 25 25 23 21 16 14 9 6 4 10 4 4 3 7 11 15 11 15 11 21 19 13 27 25 26 22 18 25 29 25 20 13 14 17 15
35 33 32 33 38 37 36 32 31 29 26 26 25 25 23 20 17 14 9 6 13 10 13 6 11 14 19 14 9 12 13 17 21 14 10 16 21 22 15 24 25 30 31 20 11 11 14
33 32 29 27 30 32 31 28 29 27 26 24 25 23 24 17 15 12 14 18 12 14 17 13 12 15 15 8 8 8 15 13 14 22 15 11 15 21 21 18 25 29 36 29 18 8 11
33 32 28 24 30 33 33 30 27 25 23 23 23 22 24 17 14 16 21 23 17 15 8 9 12 10 12 7 8 8 10 7 4 11 22 26 24 19 17 19 29 26 24 32 32 9 8
32 29 27 26 33 29 27 26 29 20 17 18 18 16 12 15 17 24 31 24 15 17 12 11 12 15 14 13 9 9 6 7 13 17 11 29 23 12 24 27 30 30 26 28 25 23 8
30 27 26 29 32 38 28 25 22 21 22 19 17 17 14 12 26 29 34 23 19 15 17 22 19 17 17 15 14 11 8 1 6 7 5 19 13 21 17 26 27 29 27 23 22 21 30
28 27 27 30 30 28 33 29 28 24 24 17 20 18 18 19 26 26 21 20 21 20 18 18 22 23 19 19 13 14 9 11 11 9 4 5 16 23 12 9 24 30 30 29 24 16 12
32 31 31 28 25 28 23 23 20 26 23 22 19 15 19 25 29 21 22 21 22 19 22 19 20 18 22 22 17 13 7 10 19 23 3 7 13 21 18 8 16 21 26 26 26 24 25
26 28 32 31 28 23 23 27 19 26 24 26 29 24 12 16 26 25 21 13 22 21 16 17 22 23 22 21 23 24 21 17 15 21 18 5 12 16 21 11 7 13 17 20 22 22 21
24 24 24 28 29 29 25 27 27 29 27 31 34 31 22 20 16 22 25 27 19 18 21 18 20 22 22 27 24 24 15 12 12 8 13 9 7 12 20 13 6 10 15 17 17 15 16
23 21 20 21 22 26 28 23 30 32 31 33 34 29 26 17 19 19 18 24 24 21 22 23 19 20 24 20 20 22 23 14 14 11 7 12 8 11 4 6 6 12 17 14 16 18 15
23 23 24 23 22 23 29 29 26 35 34 35 31 27 29 27 18 22 20 16 17 19 20 22 19 19 20 20 19 18 19 20 18 19 16 8 8 5 6 3 5 5 3 27 17 9 9
20 24 24 21 19 22 23 25 33 35 40 40 34 32 31 28 21 22 19 17 15 14 19 20 15 17 19 21 15 12 15 15 18 21 21 20 11 6 3 4 9 5 7 10 20 13 9
22 20 22 24 24 21 22 23 26 32 41 41 38 34 32 27 24 19 21 20 18 15 12 16 20 20 15 10 11 9 10 12 10 8 21 20 17 12 10 4 4 4 5 5 4 7 4
25 25 24 24 21 22 22 28 29 29 35 39 38 36 35 37 27 22 21 18 18 17 14 13 20 17 17 13 12 11 10 8 7 12 19 22 19 21 16 8 6 8 9 10 12 6 2
27 26 24 24 24 25 25 27 26 33 31 39 35 35 38 39 29 18 15 20 17 16 16 16 11 16 17 16 8 8 8 8 5 5 16 20 17 17 18 15 13 6 7 7 7 3 2
20 20 20 23 24 24 25 28 29 28 38 36 40 36 37 40 28 29 31 20 24 24 20 21 13 3 8 9 9 6 6 4 8 6 11 11 14 11 13 14 5 4 10 11 8 7 10

GFSGBSN_700_spd_072.txt.gz
Wind_Speed
23 25 24 24 24 25 22 25 24 24 24 24 24 23 22 21 22 22 23 24 24 26 25 25 24 24 22 25 18 20 20 21 24 24 23 24 27 23 30 28 27 33 30 30 29 27 26
23 23 24 25 25 25 25 25 25 25 25 24 25 26 25 23 23 23 24 25 25 25 25 26 26 25 27 25 19 18 22 23 21 23 22 21 25 21 28 28 31 28 29 32 28 28 28
24 25 26 25 26 26 26 26 26 26 26 25 26 26 27 25 24 24 25 25 25 25 23 24 25 27 30 19 21 23 24 22 23 33 28 14 15 18 22 29 27 29 34 30 30 28 27
26 26 27 28 28 28 28 27 27 27 27 26 25 26 26 26 25 24 24 24 24 23 21 21 22 25 32 24 22 17 18 22 24 31 31 29 25 25 28 25 27 32 28 35 32 28 28
28 29 29 29 29 29 29 29 28 28 28 28 27 27 27 27 27 26 23 22 23 21 20 19 20 22 24 19 12 15 19 19 17 19 23 28 26 30 18 23 25 26 35 30 29 26 26
31 31 31 32 31 29 30 30 30 30 30 29 29 29 29 27 27 26 24 21 21 22 19 13 16 17 12 7 8 14 16 14 14 20 22 26 18 28 23 25 32 28 29 31 29 24 29
32 33 33 33 33 33 32 31 31 30 30 29 30 30 30 27 25 25 23 19 18 24 16 14 16 25 16 19 24 17 11 14 11 14 19 26 25 35 30 28 29 27 28 32 27 19 21
34 34 35 34 34 35 34 32 32 32 31 30 30 30 29 26 24 22 20 20 17 17 22 17 18 20 19 18 27 23 16 14 12 16 16 25 44 46 25 25 28 30 31 33 28 18 15
37 37 37 37 36 36 35 34 33 32 31 30 29 28 27 23 22 20 17 16 14 17 22 10 10 8 5 8 13 12 18 15 14 18 20 27 26 35 27 32 32 33 34 33 31 22 20
36 39 39 39 38 36 36 36 35 33 31 30 30 28 25 21 21 16 7 15 10 11 13 5 3 4 6 7 6 11 11 16 19 14 16 22 28 27 33 30 33 37 33 32 30 27 25
36 36 35 35 35 37 37 36 36 34 31 31 30 28 26 20 20 13 18 15 6 6 5 10 7 5 5 2 6 7 6 16 16 12 12 12 9 29 30 25 33 36 29 32 28 28 28
34 33 33 33 32 32 33 36 35 34 33 32 31 29 26 20 20 15 16 11 6 2 8 8 7 1 3 8 10 10 9 16 17 16 21 22 24 23 32 17 23 29 29 26 24 27 23
33 32 33 33 32 33 31 34 33 33 33 33 31 29 27 23 17 14 12 10 5 9 4 10 8 6 7 10 11 12 8 16 12 5 14 21 29 35 17 18 16 25 24 11 11 18 13
34 33 32 32 32 31 30 26 29 33 31 32 31 29 27 25 18 20 14 12 13 9 14 5 6 8 15 15 13 10 13 14 18 16 14 9 7 33 26 23 16 20 33 15 7 8 14
34 34 34 33 31 29 27 25 23 27 25 30 29 28 26 24 19 17 15 20 12 17 18 17 15 12 15 12 10 11 17 19 14 20 11 6 8 8 34 23 20 18 38 39 21 12 8
34 35 35 34 33 29 26 22 26 30 26 27 27 21 29 20 20 22 23 31 22 13 10 5 10 9 13 11 3 5 6 6 6 9 19 9 14 12 16 23 30 23 32 27 26 7 6
35 35 34 34 31 29 25 27 27 25 29 22 24 21 17 10 17 27 37 31 18 20 11 11 12 15 15 14 13 11 7 6 13 11 15 10 14 11 6 16 31 24 28 27 20 26 6
35 34 32 29 26 25 25 25 29 27 22 28 23 24 10 12 27 34 38 28 21 16 12 16 15 15 15 14 13 14 13 15 10 11 9 13 8 17 25 21 23 27 29 27 20 26 25
33 30 29 28 27 26 25 26 26 28 22 27 27 25 16 21 26 31 23 24 25 22 19 17 17 18 17 19 18 14 17 13 10 14 6 7 8 10 12 13 17 29 35 32 23 16 19
28 26 26 26 28 29 25 24 22 23 27 26 16 18 22 23 29 21 23 22 21 20 22 19 18 18 18 21 19 16 10 6 11 16 20 10 12 12 14 14 16 25 29 32 28 10 10
27 24 22 20 22 28 26 20 23 17 29 23 25 25 12 17 26 27 23 13 20 19 20 17 19 22 20 19 21 21 24 19 17 13 14 15 9 12 25 27 23 16 23 28 30 31 26
28 26 26 22 21 22 25 23 19 20 30 29 27 26 18 14 12 21 23 25 21 14 20 22 19 18 21 24 20 19 17 19 18 8 7 13 9 15 25 23 18 18 13 14 17 24 25
28 26 22 20 19 19 20 24 22 20 26 35 29 26 22 20 16 18 16 23 22 20 21 13 15 17 18 17 24 17 13 21 16 14 7 7 12 8 9 7 10 10 11 12 11 11 9
23 20 20 21 20 21 19 21 23 23 29 32 29 24 27 29 17 15 16 15 17 20 21 19 16 17 20 15 20 17 23 25 22 17 18 12 11 10 9 13 4 9 12 11 4 9 14
23 24 20 19 24 20 20 20 25 27 32 34 30 29 28 29 20 20 16 15 13 16 19 16 21 23 17 11 16 16 17 20 25 24 23 21 12 6 4 7 10 5 4 8 27 11 13
22 22 23 19 19 19 20 22 23 30 31 35 35 33 31 29 25 16 17 16 15 12 13 13 18 27 13 10 13 14 12 14 11 12 26 22 21 13 8 5 1 5 7 7 16 11 5
21 22 25 23 22 20 17 22 22 25 31 35 39 36 35 32 28 15 15 14 14 15 15 12 14 20 13 13 11 11 15 12 10 12 29 29 25 23 17 7 5 3 6 5 2 5 5
23 25 26 28 27 24 21 22 27 26 25 33 35 37 37 36 28 23 20 15 12 14 17 13 14 17 13 14 8 12 10 9 7 9 23 24 20 18 17 11 7 7 5 5 7 11 9
20 21 22 23 25 25 25 23 23 26 32 28 31 36 38 35 25 27 26 25 15 12 6 17 8 4 9 6 12 9 9 4 7 4 16 17 25 12 15 19 7 6 12 17 10 10 7

GFSGBSN_700_spd_075.txt.gz
Wind_Speed
20 20 21 22 22 23 23 23 22 23 24 25 24 24 23 23 24 24 24 22 22 22 22 22 23 23 21 21 11 23 18 18 13 16 18 18 20 23 30 29 24 29 29 29 31 32 34
19 20 21 21 23 24 24 24 24 24 25 26 26 25 25 24 23 23 25 23 23 21 23 24 23 24 23 19 19 19 24 17 14 19 20 21 18 19 26 24 27 27 27 31 33 35 36
21 20 22 23 24 24 25 25 26 26 25 26 27 26 25 25 25 23 23 22 23 22 22 24 24 25 24 14 21 20 20 22 21 19 18 23 18 21 24 27 27 30 34 34 38 36 36
22 23 23 24 24 25 26 27 26 26 28 28 27 27 27 25 25 24 24 23 22 22 22 22 23 26 24 19 21 20 19 18 18 18 20 22 25 28 30 30 27 29 31 36 35 34 34
25 25 26 27 27 27 27 28 29 29 28 29 29 28 28 27 26 25 25 24 24 23 23 23 22 25 23 12 14 13 13 15 16 17 16 17 29 32 33 27 27 30 29 31 33 30 30
25 27 28 29 29 31 30 30 30 31 30 29 30 30 29 27 26 27 26 24 23 23 25 22 23 21 12 10 13 15 13 17 12 13 11 18 21 33 33 28 25 21 24 25 28 26 31
25 26 28 30 31 31 32 33 33 33 32 32 32 31 30 27 26 26 25 24 23 25 25 21 19 22 18 14 19 20 15 11 13 10 12 14 20 28 31 36 32 29 22 30 33 31 29
25 27 29 30 31 32 33 34 34 34 34 33 32 32 29 26 25 25 23 20 22 24 29 19 20 26 17 18 26 24 24 21 15 13 8 12 27 25 23 25 25 25 26 38 39 38 26
26 28 31 33 34 34 34 35 35 36 35 33 32 32 30 26 24 23 18 16 15 22 27 20 21 19 16 16 12 6 9 19 14 13 14 19 18 10 21 29 30 30 31 35 33 36 28
28 30 31 32 33 34 34 34 35 36 35 34 32 31 30 25 24 19 20 20 16 13 15 20 19 14 11 6 9 4 5 11 16 14 17 19 25 26 30 31 36 34 27 24 28 27 24
30 31 31 30 30 29 29 30 32 33 34 35 33 31 29 24 24 16 18 18 11 7 5 5 12 7 9 8 3 7 7 5 17 14 15 15 17 16 22 31 34 35 28 19 25 23 27
30 31 31 30 29 29 29 29 30 31 33 32 34 34 30 23 24 20 23 16 11 4 9 15 13 12 13 9 3 10 6 4 8 17 20 25 19 24 21 24 23 21 28 17 23 19 11
32 32 33 32 31 29 28 29 30 29 28 29 31 33 32 25 19 20 17 13 7 9 5 15 18 13 5 6 6 20 12 9 12 12 16 16 21 21 26 25 29 17 7 2 3 5 6
32 33 34 33 32 31 30 29 29 29 27 25 26 31 31 27 17 17 15 15 12 10 19 8 12 15 10 10 14 17 13 10 13 15 14 8 7 10 14 29 17 20 21 6 5 3 4
34 34 33 33 32 32 31 30 29 28 25 24 23 24 28 25 18 23 20 22 15 20 5 13 14 15 11 9 15 10 10 13 9 15 12 4 5 7 13 19 22 18 23 19 13 12 5
34 33 33 33 33 33 32 30 28 27 23 21 25 27 28 21 19 24 27 35 33 19 11 7 7 3 6 8 2 7 9 9 14 14 20 13 11 8 9 13 19 18 14 8 9 3 3
33 33 33 32 32 32 29 28 26 25 25 24 23 30 21 15 16 23 34 41 31 33 11 7 8 9 9 15 13 7 3 5 8 10 15 14 14 10 10 10 17 22 23 13 8 9 3
32 32 32 32 30 25 23 22 22 22 23 22 26 28 14 15 25 32 41 43 39 21 13 13 15 15 10 11 13 7 8 7 5 5 9 13 8 14 19 16 17 19 28 22 10 5 15
31 31 31 29 25 23 22 22 21 21 21 20 23 29 25 21 32 34 35 31 34 28 20 13 11 12 11 16 9 5 10 4 8 5 4 5 7 9 9 6 16 18 22 28 23 16 14
29 29 30 25 21 20 21 22 22 18 20 22 22 26 20 29 31 23 31 30 23 17 21 21 16 14 16 17 17 13 9 8 9 8 12 11 13 16 10 15 12 9 8 30 36 10 15
29 30 28 22 22 21 17 19 20 19 19 20 23 22 16 11 26 23 20 13 19 21 18 14 15 19 16 16 13 17 16 14 15 22 17 9 13 15 21 23 20 21 23 21 37 42 11
29 29 25 23 23 20 18 17 17 19 15 22 26 23 17 20 12 10 20 22 23 12 16 15 20 15 17 19 16 17 16 18 9 10 9 10 7 15 23 18 24 27 25 27 23 40 34
29 25 24 22 19 16 16 15 14 18 19 19 24 27 22 20 18 10 8 18 16 11 17 15 13 21 21 15 19 22 17 19 20 12 15 7 7 12 6 15 18 16 15 13 21 20 30
26 24 18 17 18 18 17 15 14 17 21 19 24 25 22 27 22 15 7 16 9 14 17 19 11 12 12 16 14 17 19 18 24 26 20 18 11 12 13 16 4 7 5 2 8 10 9
26 20 18 19 20 18 17 17 16 17 21 22 21 21 22 25 23 20 12 14 14 9 12 14 13 17 18 16 14 9 15 19 26 27 30 27 19 11 5 11 16 5 4 11 15 10 9
24 22 21 19 18 17 17 14 18 19 24 26 27 24 27 26 24 14 15 15 13 10 4 11 14 20 18 11 3 6 7 8 6 9 29 30 23 20 8 5 3 8 10 11 13 6 9
23 23 21 20 22 19 17 15 20 19 23 28 27 27 27 29 26 19 16 14 7 7 11 6 12 13 11 20 14 12 13 15 15 18 10 28 26 27 17 6 10 10 8 4 5 8 13
19 19 18 19 21 23 21 18 15 20 22 26 28 29 31 30 29 22 21 19 10 11 7 7 11 11 10 16 10 9 12 14 12 15 19 28 20 20 21 7 8 8 11 5 11 15 13
17 17 16 19 22 24 24 23 19 20 22 22 22 29 29 31 25 21 23 19 17 14 14 14 10 6 10 5 6 8 11 13 8 6 14 16 30 16 18 12 6 8 7 10 19 12 11

GFSGBSN_700_spd_081.txt.gz
Wind_Speed
16 15 16 16 16 16 17 19 20 21 22 23 22 23 24 23 23 24 23 24 25 25 25 26 26 24 23 23 19 24 21 22 22 22 21 23 24 25 26 29 28 37 37 35 33 31 31
18 19 16 16 18 19 20 20 21 22 23 23 25 25 24 25 25 24 25 25 25 26 27 28 27 25 25 23 22 20 23 22 24 24 22 23 22 25 26 26 30 34 34 37 36 33 31
15 16 17 18 18 19 20 22 23 24 26 26 26 27 27 25 26 28 27 26 26 26 29 29 29 28 28 15 23 23 22 21 23 23 21 23 21 25 25 26 27 30 36 37 36 33 33
17 18 19 20 21 21 22 23 24 25 27 27 28 29 29 28 28 29 31 28 26 29 29 30 31 31 31 22 23 23 24 21 23 26 26 21 21 24 27 28 22 22 29 37 31 27 32
18 19 20 20 20 20 20 21 23 24 25 27 28 30 30 30 31 32 31 31 29 31 31 31 31 31 31 27 25 27 26 24 24 26 26 21 25 28 28 27 28 27 36 34 32 29 28
18 17 16 15 16 18 19 21 23 26 27 29 31 32 31 30 31 34 34 31 29 33 34 32 34 30 24 23 20 21 21 21 19 18 18 20 24 30 32 30 24 13 25 32 31 19 20
13 12 13 14 16 18 20 21 23 25 27 29 31 32 33 32 31 33 34 33 30 33 36 32 32 31 16 16 18 23 22 22 20 20 18 18 24 30 31 31 30 31 33 39 36 27 27
10 11 12 14 16 18 20 22 24 25 26 27 29 31 31 32 30 31 32 32 31 32 43 30 33 39 31 26 31 25 24 23 22 20 15 18 26 21 20 22 23 26 29 35 39 31 29
11 12 14 16 18 21 23 25 27 28 28 29 29 30 29 28 28 27 28 26 25 28 38 48 35 40 33 33 38 30 30 26 25 22 19 19 13 10 17 16 19 24 29 33 30 26 31
11 13 16 17 20 23 26 28 29 30 30 30 30 30 29 25 24 24 25 23 21 23 26 42 30 31 28 34 40 30 34 32 31 30 24 18 19 21 18 20 19 26 24 28 29 20 18
13 15 18 20 22 25 27 30 30 30 30 29 28 28 28 25 19 21 21 18 18 12 6 10 9 12 12 16 22 22 28 29 24 22 20 10 8 7 13 15 16 26 22 18 20 20 23
15 17 19 22 24 27 29 31 31 30 29 28 26 26 26 23 20 20 17 14 11 6 10 8 7 11 11 16 13 22 25 21 13 16 18 15 15 15 12 11 15 20 20 18 18 13 11
18 19 21 23 26 29 31 32 31 30 29 28 27 27 27 24 21 22 16 11 7 9 8 8 5 7 15 17 14 20 23 23 16 14 18 15 16 16 14 12 12 14 10 3 3 5 7
18 20 23 25 27 30 31 32 31 30 29 29 30 30 28 22 23 21 14 12 12 13 20 33 27 19 17 20 21 18 21 23 22 15 7 9 3 9 8 6 7 10 19 5 5 3 3
19 21 24 26 29 31 31 31 30 29 29 31 31 30 24 16 23 20 14 17 12 14 16 20 17 12 8 7 8 24 25 24 22 21 9 8 5 9 10 10 7 5 17 22 10 12 5
21 22 25 27 29 30 31 30 29 28 28 28 26 25 13 20 19 20 20 25 13 15 15 13 13 5 11 11 10 8 17 19 27 18 21 7 5 8 11 9 10 11 9 6 10 4 3
22 25 26 28 30 30 30 28 27 26 23 19 20 22 14 15 16 18 23 23 22 26 18 13 10 15 11 16 11 7 16 9 20 16 18 16 9 5 7 7 9 8 7 11 7 7 2
24 26 27 29 30 29 27 26 25 20 18 18 19 18 9 8 14 19 25 26 17 24 20 20 22 22 23 13 10 5 4 7 16 14 11 10 5 8 14 11 11 12 14 12 9 4 11
26 27 28 29 30 27 25 24 20 16 16 18 19 19 12 14 17 18 26 22 21 18 20 23 13 10 13 18 10 4 5 9 9 7 6 5 2 4 6 2 0 7 9 13 15 20 11
27 28 29 29 27 26 23 22 15 12 14 14 17 14 14 14 16 21 22 27 21 23 25 22 21 19 23 22 3 5 4 5 1 1 1 3 3 6 6 11 15 24 25 21 17 10 9
27 28 30 28 25 23 22 18 11 13 13 15 16 17 14 14 15 13 16 23 26 25 23 15 21 10 13 17 9 4 6 2 2 4 6 5 4 7 13 14 16 17 21 23 23 27 17
28 28 29 26 23 22 19 14 12 13 13 16 17 18 17 19 17 18 23 6 13 13 16 13 15 13 11 16 9 5 6 1 4 4 6 8 7 12 17 10 15 27 29 28 26 32 30
28 28 26 22 20 19 17 11 12 14 15 17 16 15 14 19 14 18 17 15 19 13 14 12 17 13 15 13 10 9 7 8 7 8 9 9 9 9 9 22 26 19 3 16 22 24 25
27 26 22 19 19 16 11 8 9 14 16 16 14 15 14 15 12 14 15 17 17 17 7 5 10 7 9 11 14 14 14 13 13 16 17 15 14 13 13 18 3 7 23 30 24 22 23
26 22 19 19 19 15 12 13 13 16 18 18 14 16 16 16 12 8 9 14 14 10 11 5 5 5 7 2 5 6 9 13 15 18 21 21 19 10 5 9 22 27 16 21 21 16 15
23 20 19 20 17 14 15 15 15 15 18 21 14 15 19 18 11 10 4 6 11 13 11 7 3 5 4 4 1 2 2 2 4 3 1 6 23 22 12 5 4 10 24 29 37 19 7
19 18 19 17 14 15 16 16 17 13 11 15 18 15 19 19 12 12 10 8 7 8 9 8 5 2 1 3 4 3 3 4 4 6 7 8 11 24 23 13 14 15 21 22 11 4 19
18 18 16 14 13 13 16 18 18 15 12 16 15 14 18 20 18 16 7 5 7 6 6 5 4 7 3 1 1 3 6 6 8 11 11 9 8 9 13 9 11 14 15 17 3 5 12
17 16 13 11 10 12 14 18 20 16 15 14 14 13 16 19 15 10 9 8 9 8 10 7 4 9 6 1 4 4 6 8 14 15 16 15 21 12 10 7 12 18 14 20 5 4 9

GFSGBSN_700_spd_087.txt.gz
Wind_Speed
28 26 25 23 20 19 20 20 20 20 21 22 22 23 25 26 26 26 26 27 28 30 29 29 30 31 30 30 23 27 27 25 22 16 13 16 20 24 31 33 33 37 37 35 35 34 36
27 26 23 21 21 22 22 21 22 21 21 21 23 24 25 26 27 28 27 28 31 32 33 33 32 32 34 32 23 26 16 19 25 28 23 21 18 21 26 28 31 34 33 33 34 34 34
26 25 24 22 21 18 18 18 20 22 22 21 20 19 20 23 25 26 26 27 29 30 32 33 36 37 39 33 29 29 30 24 26 24 28 32 28 28 27 27 30 31 32 33 35 31 34
25 26 25 21 18 17 18 19 18 16 16 17 18 18 20 23 26 26 27 28 31 32 33 34 35 38 41 36 33 32 36 27 23 26 25 23 27 27 27 26 22 21 25 23 21 24 25
22 19 17 17 16 17 16 13 12 14 15 17 18 19 21 24 27 28 29 29 31 33 34 35 37 38 40 28 22 19 30 23 28 30 22 22 25 27 26 25 25 25 23 24 19 14 18
20 17 16 16 16 13 11 10 12 14 16 18 20 21 23 25 27 29 29 30 32 35 37 39 39 31 15 12 16 25 25 23 20 24 22 26 27 30 30 24 21 21 26 25 20 17 23
19 17 17 16 12 10 10 11 12 15 18 20 22 23 24 26 28 31 32 31 35 39 35 35 37 42 39 27 32 21 18 15 18 18 22 30 32 40 37 35 34 21 20 19 25 27 32
18 18 15 12 10 10 10 11 13 16 20 22 24 25 25 27 29 31 33 35 37 36 48 30 31 33 33 28 39 33 32 24 22 24 19 23 33 29 23 23 24 25 28 27 25 20 19
19 16 14 11 10 10 10 12 15 18 21 24 25 26 26 29 29 31 31 30 29 29 35 40 14 9 16 15 23 27 31 35 30 28 28 29 18 8 22 25 24 25 25 23 21 22 26
16 16 13 11 10 10 11 13 17 19 22 24 26 27 28 28 29 28 27 26 25 24 22 19 14 12 18 22 16 12 20 34 38 35 29 22 25 25 16 19 22 25 21 16 15 12 7
17 16 13 12 10 11 13 14 18 20 23 25 27 28 29 30 31 29 24 21 20 19 6 11 6 11 17 19 27 17 21 17 35 35 30 21 13 16 28 26 17 14 15 14 13 12 10
17 15 13 12 12 13 14 16 18 21 24 26 28 29 29 29 32 30 24 19 16 5 7 5 14 20 22 22 24 25 21 12 32 23 28 30 18 12 10 15 20 15 11 10 11 6 6
17 15 13 12 13 13 14 17 19 23 25 27 29 29 30 30 28 26 22 17 6 7 5 8 13 21 31 33 22 19 17 16 10 25 25 20 22 18 12 11 12 12 7 3 2 5 5
16 14 13 12 13 13 15 18 20 24 26 28 29 28 30 30 28 24 20 13 9 7 11 19 26 29 22 23 16 19 11 17 13 19 20 19 10 24 22 21 8 12 11 4 3 3 2
16 13 12 13 13 14 16 19 22 25 28 29 29 28 28 26 25 22 18 9 7 7 12 14 20 15 8 11 17 15 20 22 19 19 5 20 6 14 12 14 12 8 8 7 3 7 5
15 13 12 13 13 14 16 19 23 26 28 29 29 26 24 24 21 16 13 11 11 12 17 17 13 8 9 17 24 20 15 5 19 21 10 9 9 12 16 10 8 8 5 4 6 2 3
14 14 13 13 13 15 17 20 24 27 28 28 26 24 22 20 17 14 10 10 14 11 13 12 13 19 24 26 20 17 11 13 15 16 20 11 7 9 11 9 9 10 5 7 3 4 2
14 13 13 12 14 15 17 20 24 26 26 26 22 19 17 14 11 9 10 12 16 14 13 16 16 16 18 15 15 12 15 20 1 10 22 19 10 8 6 8 8 8 4 5 3 2 5
15 14 13 14 14 15 17 20 23 24 23 21 18 13 8 11 7 11 11 13 12 18 15 13 13 12 13 16 13 9 13 24 15 14 20 21 10 8 6 8 7 6 4 7 7 6 7
15 14 14 15 15 16 17 19 20 20 18 16 12 9 10 5 11 12 15 10 19 19 12 13 18 18 14 23 17 15 21 24 6 16 20 18 15 5 4 8 6 3 4 5 3 4 9
15 15 15 15 15 15 17 18 17 15 14 11 7 8 8 9 8 12 10 13 18 18 14 19 18 14 13 10 11 14 17 19 5 15 14 14 12 9 6 2 2 4 7 7 15 21 12
17 16 15 15 15 15 16 14 15 12 9 4 6 9 11 9 8 11 11 16 16 19 26 18 21 13 12 15 11 7 11 10 12 10 11 7 8 5 3 3 5 11 14 14 9 7 17
17 16 15 15 14 15 12 12 11 9 3 2 4 8 10 9 9 14 17 18 20 23 15 29 21 13 15 11 14 9 3 4 4 4 2 1 4 2 4 3 9 7 4 4 12 16 18
18 16 15 14 14 13 11 9 9 6 4 3 3 7 11 11 12 14 16 16 23 24 29 18 8 13 8 10 7 7 4 5 7 7 5 4 4 2 3 3 1 4 12 8 14 17 24
18 17 16 15 14 12 10 10 8 7 6 5 4 8 12 15 15 12 12 15 20 24 19 14 5 6 7 4 3 1 3 5 5 5 10 9 5 2 1 2 6 6 4 14 22 26 23
19 18 16 14 14 11 10 10 10 9 9 9 6 9 14 16 10 16 14 13 22 26 24 27 17 14 11 8 4 2 1 1 2 1 4 1 5 4 2 2 2 3 11 18 20 11 29
20 18 16 15 12 11 10 10 13 13 15 12 6 5 9 16 10 9 9 13 14 16 20 22 24 14 10 4 3 3 2 1 2 3 3 3 1 5 3 2 7 13 15 10 7 15 23
20 18 16 14 12 11 10 10 14 15 16 13 9 7 8 15 11 14 12 11 8 11 14 17 10 21 14 10 5 3 1 1 1 1 2 2 3 3 3 4 4 5 8 14 7 15 15
20 18 16 14 12 11 10 12 14 15 16 15 10 8 11 12 9 12 8 8 7 7 6 9 11 16 20 15 6 4 4 3 4 0 2 2 2 2 4 5 9 14 15 17 10 13 5

GFSGBSN_700_spd_093.txt.gz
Wind_Speed
45 45 41 41 37 36 34 30 27 25 23 23 22 21 20 19 20 20 19 19 18 19 22 22 21 22 21 21 23 27 26 24 23 21 20 19 16 16 26 26 27 34 30 32 28 28 31
47 46 45 42 36 35 34 29 24 23 22 20 19 18 18 17 15 16 16 18 19 20 21 23 23 22 21 22 21 24 25 26 24 23 21 19 18 17 21 23 30 27 29 29 31 33 31
51 46 47 43 33 33 30 27 24 21 18 18 18 17 15 14 13 15 18 20 22 21 22 22 22 23 23 20 26 27 26 26 27 25 23 20 18 21 14 20 25 26 29 29 30 26 28
48 44 44 45 41 30 27 24 21 18 17 17 15 14 13 12 14 17 20 22 23 24 23 23 24 26 27 26 22 21 23 20 24 26 28 28 22 26 26 25 25 20 24 30 26 25 28
51 47 47 45 34 30 25 21 19 17 15 14 14 13 13 13 16 20 21 23 23 22 21 22 26 25 21 20 22 26 26 23 26 26 23 27 32 28 23 27 30 31 34 29 26 20 21
48 42 45 44 30 22 19 18 17 15 14 13 12 11 14 16 18 20 21 22 22 23 22 21 20 17 15 13 31 30 33 33 29 18 24 25 26 26 29 31 38 30 30 28 28 24 23
40 46 43 42 23 18 19 17 16 15 13 12 10 12 14 16 18 18 19 22 25 30 22 24 21 27 22 27 23 21 24 24 25 21 21 18 27 39 34 32 35 30 27 24 24 19 20
40 40 41 32 21 21 20 18 17 15 13 11 10 11 12 15 17 19 19 22 23 25 33 22 25 25 18 16 16 16 19 20 19 28 24 26 38 32 28 30 31 29 31 31 27 26 26
39 41 37 25 23 22 20 18 17 14 11 9 9 10 12 14 17 19 21 22 24 27 32 21 14 14 14 14 15 11 15 12 18 25 30 35 33 20 33 30 30 31 31 28 27 21 23
38 33 27 23 23 21 21 18 15 12 10 8 8 9 11 14 17 20 23 24 24 25 17 6 7 8 8 11 17 8 17 18 18 22 27 36 32 33 22 35 30 34 27 26 23 22 18
32 32 27 25 23 22 21 18 14 11 10 8 8 10 13 15 19 20 22 23 23 22 7 4 5 13 8 12 16 5 14 20 23 23 22 35 36 32 30 25 26 26 17 20 20 19 20
36 32 29 25 27 25 21 17 14 12 9 9 9 12 15 17 19 20 22 21 19 4 4 1 4 7 15 16 20 23 21 21 21 22 24 31 28 31 30 29 23 19 18 14 14 16 19
32 26 25 26 22 21 20 16 12 9 8 10 12 14 17 19 20 22 21 18 8 8 4 3 8 16 22 25 27 23 21 23 24 21 23 24 32 30 21 24 27 22 18 11 13 13 13
26 28 28 28 27 23 17 13 11 9 9 10 13 16 19 20 22 20 16 3 8 6 10 17 18 25 27 24 21 18 20 26 21 22 27 24 24 33 15 21 21 27 24 14 11 10 14
30 27 29 27 24 21 16 13 10 9 8 10 14 17 20 21 19 16 8 7 8 9 10 15 21 18 15 7 13 14 17 21 20 21 20 23 31 34 26 25 18 19 29 24 19 16 7
27 28 28 25 22 19 15 11 9 7 8 11 14 18 18 18 15 11 1 5 6 9 12 14 16 13 19 17 20 19 17 15 19 17 17 15 16 23 30 24 24 16 19 15 15 5 8
27 26 25 23 20 16 13 10 7 6 8 10 12 10 15 14 11 3 2 4 9 8 12 13 15 20 20 20 19 19 17 19 22 18 23 19 17 23 23 25 30 24 20 17 12 14 6
28 27 25 21 19 15 12 9 6 5 8 10 10 3 12 10 3 5 3 6 10 7 12 17 16 16 16 17 17 19 17 12 23 22 27 14 10 20 31 21 26 27 22 20 10 12 10
26 23 24 21 18 14 11 8 5 5 6 8 3 5 7 7 2 3 5 7 7 10 12 13 14 17 17 19 18 11 12 11 22 17 21 7 13 18 16 17 17 29 21 20 12 3 10
26 25 22 19 16 13 9 7 5 5 6 5 1 2 4 4 4 3 3 2 7 11 12 10 17 19 17 15 13 14 16 16 22 25 19 12 18 4 4 18 20 15 14 13 10 9 9
25 23 21 18 15 12 8 6 5 5 4 3 1 2 1 2 2 1 3 7 10 13 12 16 12 12 15 16 14 14 17 16 16 19 16 12 4 13 14 15 16 10 10 9 8 7 6
25 23 20 18 14 9 8 7 4 4 3 3 3 2 1 4 3 1 6 7 10 16 15 13 15 19 20 20 16 20 15 10 14 22 20 4 7 14 15 13 12 10 6 5 6 7 12
23 22 18 16 13 10 9 7 5 4 2 5 6 5 5 5 1 2 6 10 17 21 12 11 14 17 13 9 10 9 13 9 13 17 20 10 10 13 11 7 5 6 3 2 1 2 6
24 22 18 16 14 11 9 7 7 5 5 9 7 5 7 5 2 3 7 10 16 21 13 8 8 9 6 4 6 10 7 6 9 9 8 11 13 11 4 1 4 10 7 5 4 6 9
23 21 18 16 14 12 10 10 7 5 8 11 10 6 4 4 2 4 8 9 14 18 13 8 7 5 3 4 5 4 4 1 7 10 7 10 9 7 4 2 11 9 7 5 6 11 10
21 20 18 17 14 13 12 10 6 6 11 14 10 5 4 5 2 5 6 9 11 14 17 23 8 5 3 5 6 3 5 6 6 5 8 8 3 2 3 3 3 7 5 6 8 4 14
23 21 19 16 15 15 12 10 7 7 12 15 11 7 3 4 3 3 4 6 8 12 12 13 8 5 6 6 4 5 6 3 4 7 5 4 6 2 3 2 5 4 7 2 5 6 15
22 20 18 17 16 15 13 10 9 10 10 14 11 7 3 1 4 5 4 6 6 5 8 12 8 9 8 10 8 5 5 4 3 6 4 6 5 5 1 2 4 3 10 7 6 6 8
22 21 19 19 16 16 13 11 11 10 12 15 10 7 4 4 6 5 4 6 4 4 4 7 8 11 11 7 7 5 4 5 3 4 7 2 6 3 5 3 6 12 10 10 8 5 2